KJ6MC Weather Reports


time (UTC)temp
C
wind
direction
speed
KPH
gust
KPH
rain 1hr
cm
rain 24hr
cm
rain mn
cm
humidity
%
barometer
mb
20260508145802 12 191 3.2 9.7 0.00 0.00 0.00 92 1017.4
20260508145704 12 221 3.2 11.3 0.00 0.00 0.00 92 1017.4
20260508145601 12 217 3.2 11.3 0.00 0.00 0.00 92 1017.4
20260508145459 12 238 3.2 11.3 0.00 0.00 0.00 92 1017.4
20260508145428 12 233 4.8 11.3 0.00 0.00 0.00 92 1017.4
20260508145358 12 232 4.8 11.3 0.00 0.00 0.00 92 1017.4
20260508145314 12 195 4.8 11.3 0.00 0.00 0.00 92 1017.3
20260508145156 12 232 4.8 11.3 0.00 0.00 0.00 92 1017.4
20260508145055 12 242 4.8 11.3 0.00 0.00 0.00 92 1017.4
20260508144955 12 235 6.4 14.5 0.00 0.00 0.00 92 1017.4
20260508144851 12 218 6.4 14.5 0.00 0.00 0.00 92 1017.4
20260508144750 12 228 4.8 14.5 0.00 0.00 0.00 92 1017.4
20260508144701 12 240 4.8 14.5 0.00 0.00 0.00 92 1017.4
20260508144647 12 259 4.8 14.5 0.00 0.00 0.00 92 1017.4
20260508144545 12 133 4.8 14.5 0.00 0.00 0.00 92 1017.3
20260508144444 12 217 4.8 14.5 0.00 0.00 0.00 92 1017.3
20260508144345 12 240 4.8 14.5 0.00 0.00 0.00 92 1017.3
20260508144244 12 296 4.8 14.5 0.00 0.00 0.00 92 1017.3
20260508144158 12 205 4.8 14.5 0.00 0.00 0.00 92 1017.3
20260508144139 12 242 3.2 14.5 0.00 0.00 0.00 92 1017.2
20260508144038 12 211 3.2 11.3 0.00 0.00 0.00 92 1017.2
20260508143939 12 190 3.2 9.7 0.00 0.00 0.00 92 1017.2
20260508143925 12 216 4.8 9.7 0.00 0.00 0.00 92 1017.2
20260508143838 12 253 3.2 9.7 0.00 0.00 0.00 92 1017.2
20260508143813 12 225 4.8 9.7 0.00 0.00 0.00 92 1017.2
20260508143634 12 215 4.8 9.7 0.00 0.00 0.00 92 1017.1
20260508143532 12 217 4.8 9.7 0.00 0.00 0.00 92 1017.1
20260508143433 12 246 4.8 11.3 0.00 0.00 0.00 92 1017.1
20260508143333 12 242 4.8 11.3 0.00 0.00 0.00 92 1017.1
20260508143232 12 235 4.8 12.9 0.00 0.00 0.00 92 1017.0
20260508143158 12 232 4.8 12.9 0.00 0.00 0.00 92 1017.0
20260508143129 12 233 4.8 12.9 0.00 0.00 0.00 92 1017.0
20260508143028 12 225 3.2 12.9 0.00 0.00 0.00 92 1017.0
20260508142929 12 226 3.2 12.9 0.00 0.00 0.00 92 1017.1
20260508142829 12 225 3.2 12.9 0.00 0.00 0.00 91 1017.0
20260508142726 12 165 3.2 12.9 0.00 0.00 0.00 91 1017.0
20260508142657 12 232 3.2 12.9 0.00 0.00 0.00 91 1017.0
20260508142623 12 255 3.2 12.9 0.00 0.00 0.00 91 1017.0
20260508142521 12 158 3.2 12.9 0.00 0.00 0.00 91 1017.0
20260508142421 12 228 3.2 12.9 0.00 0.00 0.00 91 1017.0
20260508142320 12 238 3.2 12.9 0.00 0.00 0.00 91 1017.0
20260508142220 12 211 3.2 8.0 0.00 0.00 0.00 91 1017.0
20260508142156 12 186 3.2 8.0 0.00 0.00 0.00 91 1017.0
20260508142115 12 224 3.2 8.0 0.00 0.00 0.00 91 1017.0
20260508142014 12 236 3.2 8.0 0.00 0.00 0.00 91 1016.9
20260508141914 12 183 3.2 8.0 0.00 0.00 0.00 91 1016.9
20260508141814 12 136 3.2 8.0 0.00 0.00 0.00 91 1016.9
20260508141718 12 224 3.2 8.0 0.00 0.00 0.00 91 1016.9
20260508141658 12 224 3.2 8.0 0.00 0.00 0.00 91 1016.9
20260508141613 12 134 4.8 11.3 0.00 0.00 0.00 91 1016.9
20260508141512 12 141 4.8 11.3 0.00 0.00 0.00 91 1016.9
20260508141413 12 195 4.8 11.3 0.00 0.00 0.00 91 1016.9
20260508141313 12 211 3.2 11.3 0.00 0.00 0.00 91 1016.9
20260508141213 12 224 3.2 11.3 0.00 0.00 0.00 91 1016.8
20260508141157 12 208 3.2 11.3 0.00 0.00 0.00 91 1016.8
20260508141113 12 224 3.2 11.3 0.00 0.00 0.00 91 1016.8
20260508141012 12 155 3.2 11.3 0.00 0.00 0.00 91 1016.8
20260508140912 12 229 4.8 11.3 0.00 0.00 0.00 91 1016.7
20260508140813 12 212 4.8 11.3 0.00 0.00 0.00 91 1016.8
20260508140711 12 197 3.2 11.3 0.00 0.00 0.00 91 1016.7
20260508140656 12 164 3.2 11.3 0.00 0.00 0.00 91 1016.7
20260508140610 12 126 3.2 11.3 0.00 0.00 0.00 91 1016.7
20260508140509 12 225 3.2 11.3 0.00 0.00 0.00 91 1016.7
20260508140409 12 203 3.2 11.3 0.00 0.00 0.00 91 1016.7
20260508140308 12 233 3.2 11.3 0.00 0.00 0.00 91 1016.7
20260508140208 12 250 4.8 11.3 0.00 0.00 0.00 91 1016.7
20260508140150 12 242 4.8 11.3 0.00 0.00 0.00 91 1016.7
20260508140109 12 239 3.2 11.3 0.00 0.00 0.00 91 1016.7
20260508140008 12 210 3.2 11.3 0.00 0.00 0.00 92 1016.7
20260508135902 11 143 3.2 11.3 0.00 0.00 0.00 92 1016.7
20260508135803 11 222 3.2 11.3 0.00 0.00 0.00 92 1016.7
20260508135703 11 229 3.2 9.7 0.00 0.00 0.00 92 1016.7
20260508135642 11 190 3.2 9.7 0.00 0.00 0.00 92 1016.7
20260508135603 11 203 3.2 9.7 0.00 0.00 0.00 92 1016.7
20260508135502 11 155 3.2 9.7 0.00 0.00 0.00 92 1016.7
20260508135357 11 200 3.2 9.7 0.00 0.00 0.00 92 1016.7
20260508135256 11 211 3.2 9.7 0.00 0.00 0.00 92 1016.7
20260508135137 11 149 3.2 9.7 0.00 0.00 0.00 92 1016.7
20260508135057 11 253 3.2 9.7 0.00 0.00 0.00 92 1016.7
20260508134957 11 205 3.2 8.0 0.00 0.00 0.00 92 1016.7
20260508134851 11 219 3.2 8.0 0.00 0.00 0.00 92 1016.7
20260508134751 11 210 3.2 8.0 0.00 0.00 0.00 92 1016.7
20260508134650 11 200 1.6 8.0 0.00 0.00 0.00 92 1016.7
20260508134630 11 203 1.6 8.0 0.00 0.00 0.00 92 1016.6
20260508134551 11 250 1.6 8.0 0.00 0.00 0.00 92 1016.6
20260508134450 11 207 1.6 8.0 0.00 0.00 0.00 92 1016.6
20260508134344 11 215 1.6 4.8 0.00 0.00 0.00 92 1016.6
20260508134245 11 229 1.6 4.8 0.00 0.00 0.00 92 1016.6
20260508134145 11 200 1.6 4.8 0.00 0.00 0.00 92 1016.5
20260508134123 11 205 1.6 4.8 0.00 0.00 0.00 92 1016.5
20260508134045 11 158 1.6 4.8 0.00 0.00 0.00 92 1016.5
20260508133944 11 207 1.6 4.8 0.00 0.00 0.00 93 1016.5
20260508133843 11 129 1.6 4.8 0.00 0.00 0.00 93 1016.4
20260508133840 11 141 1.6 4.8 0.00 0.00 0.00 93 1016.5
20260508133742 11 113 1.6 4.8 0.00 0.00 0.00 93 1016.5
20260508133730 11 129 1.6 4.8 0.00 0.00 0.00 93 1016.4
20260508133539 11 120 1.6 4.8 0.00 0.00 0.00 93 1016.5
20260508133438 11 136 1.6 4.8 0.00 0.00 0.00 93 1016.5
20260508133338 11 134 1.6 4.8 0.00 0.00 0.00 93 1016.5
20260508133237 11 143 1.6 4.8 0.00 0.00 0.00 93 1016.5
20260508133135 11 149 1.6 4.8 0.00 0.00 0.00 93 1016.4
20260508133113 11 116 1.6 4.8 0.00 0.00 0.00 93 1016.4
20260508133034 11 225 1.6 4.8 0.00 0.00 0.00 93 1016.4
20260508132932 11 225 1.6 4.8 0.00 0.00 0.00 93 1016.4
20260508132827 11 129 1.6 4.8 0.00 0.00 0.00 93 1016.4
20260508132727 11 148 1.6 4.8 0.00 0.00 0.00 93 1016.5
20260508132607 11 148 1.6 4.8 0.00 0.00 0.00 93 1016.5
20260508132527 11 148 1.6 4.8 0.00 0.00 0.00 93 1016.4
20260508132426 11 148 1.6 6.4 0.00 0.00 0.00 93 1016.4
20260508132322 11 225 1.6 6.4 0.00 0.00 0.00 93 1016.4
20260508132220 11 225 1.6 6.4 0.00 0.00 0.00 93 1016.4
20260508132121 11 210 1.6 6.4 0.00 0.00 0.00 93 1016.4
20260508132101 11 145 1.6 6.4 0.00 0.00 0.00 93 1016.4
20260508132021 11 145 1.6 6.4 0.00 0.00 0.00 93 1016.4
20260508131920 11 166 1.6 6.4 0.00 0.00 0.00 93 1016.4
20260508131821 11 141 1.6 6.4 0.00 0.00 0.00 93 1016.4
20260508131718 11 169 1.6 6.4 0.00 0.00 0.00 93 1016.4
20260508131618 11 169 1.6 6.4 0.00 0.00 0.00 93 1016.4
20260508131559 11 186 1.6 6.4 0.00 0.00 0.00 93 1016.4
20260508131515 11 211 1.6 4.8 0.00 0.00 0.00 93 1016.5
20260508131414 11 240 1.6 6.4 0.00 0.00 0.00 93 1016.4
20260508131314 11 210 1.6 6.4 0.00 0.00 0.00 93 1016.4
20260508131212 11 236 1.6 6.4 0.00 0.00 0.00 93 1016.4
20260508131113 11 204 1.6 6.4 0.00 0.00 0.00 93 1016.4
20260508131047 11 205 1.6 6.4 0.00 0.00 0.00 93 1016.4
20260508131010 11 226 1.6 6.4 0.00 0.00 0.00 93 1016.4
20260508130911 11 173 1.6 6.4 0.00 0.00 0.00 93 1016.4
20260508130811 11 141 1.6 6.4 0.00 0.00 0.00 93 1016.4
20260508130710 11 231 1.6 6.4 0.00 0.00 0.00 93 1016.4
20260508130611 11 186 1.6 6.4 0.00 0.00 0.00 93 1016.4
20260508130541 11 210 1.6 6.4 0.00 0.00 0.00 93 1016.4
20260508130509 11 207 1.6 4.8 0.00 0.00 0.00 93 1016.4
20260508130407 11 143 1.6 6.4 0.00 0.00 0.00 93 1016.4
20260508130312 11 141 1.6 6.4 0.00 0.00 0.00 93 1016.5
20260508130307 11 144 1.6 6.4 0.00 0.00 0.00 93 1016.5
20260508130209 11 142 1.6 6.4 0.00 0.00 0.00 93 1016.4
20260508130201 11 141 1.6 6.4 0.00 0.00 0.00 93 1016.4
20260508130002 11 141 1.6 6.4 0.00 0.00 0.00 93 1016.5
20260508125902 11 228 3.2 6.4 0.00 0.00 0.00 93 1016.4
20260508125802 11 217 3.2 6.4 0.00 0.00 0.00 93 1016.4
20260508125658 11 158 3.2 6.4 0.00 0.00 0.00 93 1016.4
20260508125559 11 221 3.2 6.4 0.00 0.00 0.00 93 1016.4
20260508125530 11 148 3.2 6.4 0.00 0.00 0.00 93 1016.3
20260508125456 11 148 3.2 6.4 0.00 0.00 0.00 93 1016.3
20260508125357 11 242 3.2 6.4 0.00 0.00 0.00 93 1016.4
20260508125257 11 222 3.2 8.0 0.00 0.00 0.00 93 1016.4
20260508125157 11 210 3.2 8.0 0.00 0.00 0.00 93 1016.4
20260508125057 11 214 3.2 12.9 0.00 0.00 0.00 93 1016.4
20260508125024 11 198 3.2 12.9 0.00 0.00 0.00 93 1016.4
20260508124956 11 141 3.2 12.9 0.00 0.00 0.00 93 1016.4
20260508124857 11 212 3.2 12.9 0.00 0.00 0.00 93 1016.4
20260508124755 11 238 3.2 12.9 0.00 0.00 0.00 92 1016.4
20260508124655 11 210 4.8 12.9 0.00 0.00 0.00 92 1016.4
20260508124554 11 207 4.8 12.9 0.00 0.00 0.00 92 1016.4
20260508124517 11 242 4.8 12.9 0.00 0.00 0.00 92 1016.3
20260508124455 11 205 4.8 12.9 0.00 0.00 0.00 92 1016.3
20260508124354 11 238 4.8 12.9 0.00 0.00 0.00 92 1016.3
20260508124255 11 214 4.8 12.9 0.00 0.00 0.00 92 1016.3
20260508124154 11 136 4.8 12.9 0.00 0.00 0.00 92 1016.3
20260508124051 11 167 4.8 9.7 0.00 0.00 0.00 92 1016.3
20260508124010 11 141 4.8 9.7 0.00 0.00 0.00 92 1016.3
20260508123948 11 150 4.8 9.7 0.00 0.00 0.00 92 1016.3
20260508123849 11 223 4.8 9.7 0.00 0.00 0.00 92 1016.3
20260508123819 11 233 4.8 9.7 0.00 0.00 0.00 92 1016.3
20260508123731 11 217 4.8 9.7 0.00 0.00 0.00 92 1016.3
20260508123648 11 219 4.8 9.7 0.00 0.00 0.00 92 1016.3
20260508123615 11 155 4.8 9.7 0.00 0.00 0.00 92 1016.3
20260508123443 11 229 4.8 9.7 0.00 0.00 0.00 92 1016.3
20260508123342 11 172 4.8 9.7 0.00 0.00 0.00 92 1016.3
20260508123243 11 137 4.8 9.7 0.00 0.00 0.00 92 1016.3
20260508123225 11 241 3.2 8.0 0.00 0.00 0.00 92 1016.3
20260508123142 11 236 4.8 9.7 0.00 0.00 0.00 92 1016.3
20260508123108 11 205 3.2 9.7 0.00 0.00 0.00 92 1016.3
20260508122936 11 129 3.2 8.0 0.00 0.00 0.00 92 1016.3
20260508122836 11 215 3.2 8.0 0.00 0.00 0.00 92 1016.3
20260508122737 11 215 3.2 8.0 0.00 0.00 0.00 92 1016.3
20260508122636 11 219 3.2 9.7 0.00 0.00 0.00 92 1016.3
20260508122531 11 240 4.8 9.7 0.00 0.00 0.00 92 1016.3
20260508122452 11 216 4.8 9.7 0.00 0.00 0.00 92 1016.3
20260508122431 11 204 4.8 9.7 0.00 0.00 0.00 92 1016.3
20260508122331 11 156 3.2 9.7 0.00 0.00 0.00 92 1016.3
20260508122230 11 210 3.2 9.7 0.00 0.00 0.00 92 1016.3
20260508122130 11 231 4.8 9.7 0.00 0.00 0.00 92 1016.3
20260508122025 11 232 3.2 9.7 0.00 0.00 0.00 92 1016.2
20260508121946 11 233 4.8 9.7 0.00 0.00 0.00 92 1016.3
20260508121924 11 163 4.8 9.7 0.00 0.00 0.00 92 1016.3
20260508121825 11 230 4.8 9.7 0.00 0.00 0.00 92 1016.2
20260508121725 11 253 3.2 9.7 0.00 0.00 0.00 92 1016.3
20260508121624 11 187 3.2 8.0 0.00 0.00 0.00 92 1016.3
20260508121519 11 240 3.2 8.0 0.00 0.00 0.00 92 1016.3
20260508121441 11 184 3.2 8.0 0.00 0.00 0.00 92 1016.3
20260508121419 11 203 3.2 8.0 0.00 0.00 0.00 92 1016.3
20260508121319 11 193 3.2 8.0 0.00 0.00 0.00 92 1016.3
20260508121219 11 201 3.2 8.0 0.00 0.00 0.00 92 1016.3
20260508121118 11 219 1.6 8.0 0.00 0.00 0.00 92 1016.2
20260508121015 11 204 1.6 6.4 0.00 0.00 0.00 92 1016.3
20260508120938 11 222 1.6 6.4 0.00 0.00 0.00 92 1016.2
20260508120913 11 184 1.6 6.4 0.00 0.00 0.00 92 1016.2
20260508120812 11 245 1.6 4.8 0.00 0.00 0.00 92 1016.2
20260508120713 11 182 1.6 4.8 0.00 0.00 0.00 92 1016.2
20260508120612 11 219 1.6 4.8 0.00 0.00 0.00 92 1016.2
20260508120510 11 219 1.6 4.8 0.00 0.00 0.00 92 1016.2
20260508120411 11 211 1.6 4.8 0.00 0.00 0.00 92 1016.1
20260508120310 11 190 1.6 6.4 0.00 0.00 0.00 92 1016.2
20260508120209 11 210 1.6 6.4 0.00 0.00 0.00 92 1016.1
20260508120106 11 160 1.6 6.4 0.00 0.00 0.00 92 1016.1
20260508120007 11 167 1.6 6.4 0.00 0.00 0.00 92 1016.1
20260508115936 11 193 1.6 6.4 0.00 0.00 0.00 92 1016.1
20260508115905 11 145 1.6 6.4 0.00 0.00 0.00 92 1016.1
20260508115804 11 137 1.6 6.4 0.00 0.00 0.00 92 1016.1
20260508115702 11 211 1.6 6.4 0.00 0.00 0.00 92 1016.1
20260508115600 11 137 1.6 6.4 0.00 0.00 0.00 92 1016.0
20260508115458 11 173 1.6 6.4 0.00 0.00 0.00 92 1016.1
20260508115436 11 165 1.6 6.4 0.00 0.00 0.00 92 1016.0
20260508115359 11 136 1.6 4.8 0.00 0.00 0.00 92 1016.0
20260508115258 11 134 1.6 4.8 0.00 0.00 0.00 92 1016.0
20260508115156 11 155 1.6 8.0 0.00 0.00 0.00 92 1016.0
20260508115054 11 150 1.6 8.0 0.00 0.00 0.00 92 1016.1
20260508114936 11 155 1.6 8.0 0.00 0.00 0.00 92 1016.1
20260508114848 11 156 1.6 8.0 0.00 0.00 0.00 92 1016.1
20260508114749 11 150 1.6 8.0 0.00 0.00 0.00 92 1016.1
20260508114649 11 205 1.6 8.0 0.00 0.00 0.00 92 1016.1
20260508114548 11 136 1.6 8.0 0.00 0.00 0.00 92 1016.1
20260508114446 11 158 1.6 8.0 0.00 0.00 0.00 92 1016.1
20260508114436 11 161 1.6 8.0 0.00 0.00 0.00 92 1016.1
20260508114343 11 158 1.6 8.0 0.00 0.00 0.00 92 1016.1
20260508114242 11 211 1.6 8.0 0.00 0.00 0.00 92 1016.1
20260508114156 11 210 1.6 6.4 0.00 0.00 0.00 92 1016.0
20260508114143 11 157 1.6 6.4 0.00 0.00 0.00 92 1016.1
20260508114056 11 193 1.6 6.4 0.00 0.00 0.00 92 1016.1
20260508114047 11 210 1.6 6.4 0.00 0.00 0.00 92 1016.0
20260508113841 11 129 1.6 6.4 0.00 0.00 0.00 92 1016.0
20260508113739 11 141 1.6 6.4 0.00 0.00 0.00 92 1016.0
20260508113638 11 129 1.6 6.4 0.00 0.00 0.00 92 1016.0
20260508113537 11 128 1.6 6.4 0.00 0.00 0.00 92 1016.1
20260508113437 11 146 1.6 4.8 0.00 0.00 0.00 92 1016.1
20260508113431 11 145 1.6 4.8 0.00 0.00 0.00 92 1016.1
20260508113330 11 145 3.2 8.0 0.00 0.00 0.00 92 1016.1
20260508113231 11 203 3.2 8.0 0.00 0.00 0.00 92 1016.1
20260508113130 11 203 1.6 8.0 0.00 0.00 0.00 92 1016.0
20260508113029 11 162 1.6 8.0 0.00 0.00 0.00 92 1016.1
20260508112937 11 235 1.6 8.0 0.00 0.00 0.00 92 1016.0
20260508112931 11 238 1.6 8.0 0.00 0.00 0.00 92 1016.0
20260508112829 11 129 1.6 8.0 0.00 0.00 0.00 92 1016.0
20260508112728 11 154 3.2 8.0 0.00 0.00 0.00 92 1016.0
20260508112709 11 188 3.2 8.0 0.00 0.00 0.00 92 1016.0
20260508112627 11 211 3.2 8.0 0.00 0.00 0.00 92 1016.0
20260508112546 11 158 3.2 8.0 0.00 0.00 0.00 92 1016.0
20260508112419 11 241 3.2 8.0 0.00 0.00 0.00 92 1016.0
20260508112319 11 162 3.2 6.4 0.00 0.00 0.00 92 1016.0
20260508112218 11 212 3.2 8.0 0.00 0.00 0.00 92 1016.0
20260508112118 11 228 3.2 8.0 0.00 0.00 0.00 92 1016.0
20260508112019 11 223 3.2 8.0 0.00 0.00 0.00 92 1016.0
20260508111934 11 136 3.2 8.0 0.00 0.00 0.00 92 1016.0
20260508111911 11 210 3.2 8.0 0.00 0.00 0.00 92 1016.0
20260508111811 11 155 3.2 8.0 0.00 0.00 0.00 92 1016.0
20260508111710 11 153 3.2 8.0 0.00 0.00 0.00 92 1016.0
20260508111611 11 144 3.2 8.0 0.00 0.00 0.00 93 1016.0
20260508111510 11 141 1.6 8.0 0.00 0.00 0.00 93 1016.0
20260508111435 11 205 1.6 8.0 0.00 0.00 0.00 93 1016.0
20260508111407 11 210 1.6 8.0 0.00 0.00 0.00 93 1016.0
20260508111305 11 194 1.6 6.4 0.00 0.00 0.00 93 1016.0
20260508111204 11 195 1.6 8.0 0.00 0.00 0.00 93 1016.0
20260508111105 11 218 1.6 8.0 0.00 0.00 0.00 93 1016.0
20260508111002 11 224 1.6 8.0 0.00 0.00 0.00 93 1016.0
20260508110934 11 222 1.6 8.0 0.00 0.00 0.00 93 1016.0
20260508110857 11 211 1.6 8.0 0.00 0.00 0.00 93 1016.0
20260508110756 11 215 1.6 8.0 0.00 0.00 0.00 93 1016.0
20260508110657 11 217 1.6 8.0 0.00 0.00 0.00 93 1016.0
20260508110557 11 212 1.6 8.0 0.00 0.00 0.00 93 1016.0
20260508110454 11 210 3.2 8.0 0.00 0.00 0.00 93 1016.0
20260508110434 11 211 1.6 8.0 0.00 0.00 0.00 93 1016.0
20260508110355 11 229 1.6 8.0 0.00 0.00 0.00 93 1016.0
20260508110255 11 144 1.6 8.0 0.00 0.00 0.00 93 1016.0
20260508110155 11 219 1.6 6.4 0.00 0.00 0.00 93 1016.0
20260508110054 11 205 1.6 6.4 0.00 0.00 0.00 93 1015.9
20260508105952 11 219 1.6 6.4 0.00 0.00 0.00 93 1016.0
20260508105935 11 200 1.6 6.4 0.00 0.00 0.00 93 1015.9
20260508105853 11 221 1.6 6.4 0.00 0.00 0.00 93 1015.9
20260508105753 11 207 1.6 6.4 0.00 0.00 0.00 93 1015.9
20260508105653 11 173 1.6 6.4 0.00 0.00 0.00 93 1015.9
20260508105552 11 212 1.6 6.4 0.00 0.00 0.00 93 1015.9
20260508105451 11 158 1.6 6.4 0.00 0.00 0.00 93 1015.9
20260508105433 11 153 1.6 6.4 0.00 0.00 0.00 93 1015.9
20260508105350 11 170 1.6 6.4 0.00 0.00 0.00 93 1015.9
20260508105248 11 170 1.6 6.4 0.00 0.00 0.00 93 1015.9
20260508105149 11 205 1.6 6.4 0.00 0.00 0.00 93 1015.9
20260508105048 11 231 1.6 6.4 0.00 0.00 0.00 93 1015.9
20260508104947 11 188 1.6 6.4 0.00 0.00 0.00 93 1015.9
20260508104932 11 218 1.6 6.4 0.00 0.00 0.00 93 1015.9
20260508104847 11 218 1.6 6.4 0.00 0.00 0.00 93 1015.9
20260508104745 11 219 1.6 8.0 0.00 0.00 0.00 93 1015.9
20260508104544 11 219 1.6 8.0 0.00 0.00 0.00 93 1015.9
20260508104445 11 145 1.6 8.0 0.00 0.00 0.00 93 1015.9
20260508104425 11 145 1.6 8.0 0.00 0.00 0.00 93 1016.0
20260508104344 11 146 1.6 8.0 0.00 0.00 0.00 93 1015.9
20260508104244 11 127 1.6 8.0 0.00 0.00 0.00 93 1015.9
20260508104141 11 136 1.6 8.0 0.00 0.00 0.00 93 1015.9
20260508104040 11 132 1.6 8.0 0.00 0.00 0.00 93 1015.9
20260508103941 11 221 1.6 8.0 0.00 0.00 0.00 93 1015.9
20260508103921 11 142 1.6 8.0 0.00 0.00 0.00 93 1015.9
20260508103841 11 148 1.6 8.0 0.00 0.00 0.00 93 1015.9
20260508103737 11 193 1.6 6.4 0.00 0.00 0.00 93 1015.9
20260508103636 11 193 1.6 6.4 0.00 0.00 0.00 93 1015.9
20260508103535 11 231 1.6 6.4 0.00 0.00 0.00 93 1015.9
20260508103435 11 222 1.6 6.4 0.00 0.00 0.00 93 1015.9
20260508103420 11 212 1.6 6.4 0.00 0.00 0.00 93 1015.9
20260508103332 11 190 1.6 6.4 0.00 0.00 0.00 93 1015.9
20260508103234 11 167 1.6 6.4 0.00 0.00 0.00 93 1015.9
20260508103126 11 139 1.6 4.8 0.00 0.00 0.00 93 1015.9
20260508103025 11 217 1.6 4.8 0.00 0.00 0.00 93 1015.8
20260508102921 11 200 1.6 4.8 0.00 0.00 0.00 93 1015.9
20260508102824 11 161 1.6 4.8 0.00 0.00 0.00 93 1015.9
20260508102722 11 221 1.6 4.8 0.00 0.00 0.00 93 1015.9
20260508102645 11 195 1.6 4.8 0.00 0.00 0.00 93 1015.8
20260508102616 11 230 1.6 4.8 0.00 0.00 0.00 93 1015.9
20260508102534 11 195 1.6 4.8 0.00 0.00 0.00 93 1015.9
20260508102417 11 195 1.6 4.8 0.00 0.00 0.00 93 1015.8
20260508102317 11 211 1.6 4.8 0.00 0.00 0.00 93 1015.8
20260508102214 11 215 1.6 4.8 0.00 0.00 0.00 93 1015.8
20260508102109 11 177 1.6 4.8 0.00 0.00 0.00 93 1015.8
20260508102009 11 134 1.6 4.8 0.00 0.00 0.00 93 1015.8
20260508101909 11 212 1.6 4.8 0.00 0.00 0.00 93 1015.8
20260508101809 11 132 1.6 4.8 0.00 0.00 0.00 93 1015.8
20260508101709 11 215 1.6 4.8 0.00 0.00 0.00 93 1015.9
20260508101641 11 191 1.6 4.8 0.00 0.00 0.00 93 1015.9
20260508101606 11 179 1.6 4.8 0.00 0.00 0.00 93 1015.9
20260508101529 11 193 1.6 4.8 0.00 0.00 0.00 93 1015.9
20260508101404 11 192 1.6 4.8 0.00 0.00 0.00 93 1015.9
20260508101305 11 141 1.6 4.8 0.00 0.00 0.00 93 1015.8
20260508101202 11 193 1.6 4.8 0.00 0.00 0.00 93 1015.9
20260508101057 12 193 1.6 4.8 0.00 0.00 0.00 93 1015.9
20260508100957 12 193 1.6 4.8 0.00 0.00 0.00 93 1015.9
20260508100918 12 193 1.6 4.8 0.00 0.00 0.00 93 1015.9
20260508100857 12 160 1.6 4.8 0.00 0.00 0.00 93 1015.9
20260508100757 12 118 1.6 4.8 0.00 0.00 0.00 93 1015.9
20260508100700 12 136 0.0 4.8 0.00 0.00 0.00 93 1015.9
20260508100557 12 212 0.0 4.8 0.00 0.00 0.00 93 1015.9
20260508100455 12 212 0.0 4.8 0.00 0.00 0.00 93 1015.8
20260508100416 12 212 0.0 4.8 0.00 0.00 0.00 93 1015.8
20260508100353 12 212 0.0 4.8 0.00 0.00 0.00 93 1015.8
20260508100252 12 212 1.6 4.8 0.00 0.00 0.00 93 1015.8
20260508100151 12 212 1.6 4.8 0.00 0.00 0.00 93 1015.8
20260508100044 12 212 1.6 4.8 0.00 0.00 0.00 93 1015.8
20260508095945 12 197 0.0 4.8 0.00 0.00 0.00 93 1015.8
20260508095914 12 119 0.0 4.8 0.00 0.00 0.00 93 1015.8
20260508095845 12 139 0.0 4.8 0.00 0.00 0.00 93 1015.9
20260508095744 12 211 0.0 4.8 0.00 0.00 0.00 93 1015.9
20260508095644 12 229 1.6 4.8 0.00 0.00 0.00 93 1015.8
20260508095540 12 229 1.6 4.8 0.00 0.00 0.00 93 1015.8
20260508095414 12 143 1.6 4.8 0.00 0.00 0.00 93 1015.8
20260508095341 12 146 0.0 4.8 0.00 0.00 0.00 93 1015.7
20260508095241 12 195 0.0 4.8 0.00 0.00 0.00 93 1015.7
20260508095138 12 133 1.6 4.8 0.00 0.00 0.00 93 1015.7
20260508095035 12 132 1.6 4.8 0.00 0.00 0.00 93 1015.7
20260508094935 12 132 1.6 4.8 0.00 0.00 0.00 93 1015.7
20260508094914 12 136 1.6 4.8 0.00 0.00 0.00 93 1015.7
20260508094900 12 122 1.6 6.4 0.00 0.00 0.00 93 1015.7
20260508094834 12 129 1.6 4.8 0.00 0.00 0.00 93 1015.8
20260508094750 12 151 1.6 4.8 0.00 0.00 0.00 93 1015.8
20260508094632 12 121 1.6 6.4 0.00 0.00 0.00 93 1015.8
20260508094534 12 141 1.6 6.4 0.00 0.00 0.00 93 1015.8
20260508094525 12 122 1.6 6.4 0.00 0.00 0.00 93 1015.7
20260508094329 12 121 1.6 6.4 0.00 0.00 0.00 93 1015.7
20260508094229 12 159 1.6 6.4 0.00 0.00 0.00 93 1015.7
20260508094128 12 143 1.6 6.4 0.00 0.00 0.00 93 1015.7
20260508094029 12 143 1.6 6.4 0.00 0.00 0.00 93 1015.7
20260508093929 12 132 1.6 6.4 0.00 0.00 0.00 93 1015.7
20260508093912 12 133 1.6 6.4 0.00 0.00 0.00 93 1015.7
20260508093828 12 158 1.6 6.4 0.00 0.00 0.00 93 1015.8
20260508093726 12 116 1.6 6.4 0.00 0.00 0.00 93 1015.8
20260508093627 12 138 1.6 4.8 0.00 0.00 0.00 93 1015.7
20260508093524 12 117 1.6 4.8 0.00 0.00 0.00 93 1015.7
20260508093410 12 132 1.6 4.8 0.00 0.00 0.00 93 1015.8
20260508093320 12 135 0.0 4.8 0.00 0.00 0.00 93 1015.7
20260508093221 12 136 1.6 4.8 0.00 0.00 0.00 93 1015.7
20260508093121 12 134 1.6 4.8 0.00 0.00 0.00 93 1015.7
20260508093021 12 126 1.6 4.8 0.00 0.00 0.00 93 1015.7
20260508092920 12 145 1.6 4.8 0.00 0.00 0.00 93 1015.7
20260508092910 12 146 1.6 4.8 0.00 0.00 0.00 93 1015.7
20260508092818 12 146 1.6 4.8 0.00 0.00 0.00 93 1015.8
20260508092719 12 187 1.6 4.8 0.00 0.00 0.00 93 1015.7
20260508092619 12 165 1.6 4.8 0.00 0.00 0.00 93 1015.8
20260508092517 12 165 1.6 4.8 0.00 0.00 0.00 93 1015.8
20260508092410 12 155 1.6 4.8 0.00 0.00 0.00 93 1015.8
20260508092314 12 155 1.6 4.8 0.00 0.00 0.00 93 1015.7
20260508092214 12 132 1.6 4.8 0.00 0.00 0.00 93 1015.8
20260508092115 12 139 1.6 4.8 0.00 0.00 0.00 93 1015.7
20260508092015 12 205 1.6 4.8 0.00 0.00 0.00 92 1015.7
20260508091915 12 159 1.6 4.8 0.00 0.00 0.00 92 1015.7
20260508091811 12 131 1.6 4.8 0.00 0.00 0.00 92 1015.7
20260508091710 12 131 1.6 4.8 0.00 0.00 0.00 92 1015.7
20260508091611 12 131 1.6 4.8 0.00 0.00 0.00 92 1015.7
20260508091509 12 131 1.6 3.2 0.00 0.00 0.00 92 1015.7
20260508091410 12 132 0.0 3.2 0.00 0.00 0.00 92 1015.7
20260508091307 12 133 1.6 3.2 0.00 0.00 0.00 92 1015.7
20260508091205 12 146 1.6 4.8 0.00 0.00 0.00 92 1015.7
20260508091123 12 170 1.6 4.8 0.00 0.00 0.00 92 1015.6
20260508091103 12 191 1.6 4.8 0.00 0.00 0.00 92 1015.7
20260508091016 12 131 1.6 4.8 0.00 0.00 0.00 92 1015.6
20260508091006 12 170 1.6 4.8 0.00 0.00 0.00 92 1015.6
20260508090757 12 170 1.6 4.8 0.00 0.00 0.00 92 1015.6
20260508090658 12 184 1.6 4.8 0.00 0.00 0.00 92 1015.6
20260508090555 12 214 1.6 6.4 0.00 0.00 0.00 92 1015.6
20260508090454 12 214 1.6 6.4 0.00 0.00 0.00 92 1015.6
20260508090356 12 240 1.6 6.4 0.00 0.00 0.00 92 1015.6
20260508090251 12 225 1.6 6.4 0.00 0.00 0.00 92 1015.6
20260508090149 12 200 1.6 6.4 0.00 0.00 0.00 92 1015.6
20260508090050 12 188 1.6 6.4 0.00 0.00 0.00 92 1015.6
20260508085948 12 188 1.6 6.4 0.00 0.00 0.00 92 1015.6
20260508085850 12 143 1.6 6.4 0.00 0.00 0.00 92 1015.6
20260508085745 12 158 1.6 6.4 0.00 0.00 0.00 92 1015.5
20260508085643 12 158 1.6 6.4 0.00 0.00 0.00 92 1015.5
20260508085544 12 210 1.6 4.8 0.00 0.00 0.00 92 1015.5
20260508085443 12 155 0.0 3.2 0.00 0.00 0.00 92 1015.5
20260508085348 12 141 0.0 3.2 0.00 0.00 0.00 92 1015.5
20260508085342 12 141 1.6 3.2 0.00 0.00 0.00 92 1015.5
20260508085241 12 141 1.6 4.8 0.00 0.00 0.00 92 1015.6
20260508085141 12 152 1.6 4.8 0.00 0.00 0.00 92 1015.6
20260508085041 12 201 1.6 4.8 0.00 0.00 0.00 92 1015.6
20260508084940 12 201 1.6 4.8 0.00 0.00 0.00 92 1015.6
20260508084836 12 201 1.6 4.8 0.00 0.00 0.00 92 1015.6
20260508084735 12 201 1.6 4.8 0.00 0.00 0.00 92 1015.6
20260508084631 12 158 1.6 4.8 0.00 0.00 0.00 92 1015.6
20260508084532 12 204 1.6 4.8 0.00 0.00 0.00 92 1015.6
20260508084430 12 205 1.6 4.8 0.00 0.00 0.00 92 1015.6
20260508084330 12 204 1.6 4.8 0.00 0.00 0.00 92 1015.6
20260508084228 12 189 1.6 4.8 0.00 0.00 0.00 92 1015.6
20260508084128 12 194 1.6 4.8 0.00 0.00 0.00 92 1015.6
20260508084029 12 198 1.6 4.8 0.00 0.00 0.00 92 1015.6
20260508083927 12 198 3.2 6.4 0.00 0.00 0.00 92 1015.5
20260508083842 12 198 3.2 6.4 0.00 0.00 0.00 92 1015.5
20260508083824 12 187 1.6 6.4 0.00 0.00 0.00 92 1015.6
20260508083721 12 223 1.6 6.4 0.00 0.00 0.00 92 1015.6
20260508083620 12 228 1.6 6.4 0.00 0.00 0.00 92 1015.6
20260508083521 12 228 3.2 6.4 0.00 0.00 0.00 92 1015.6
20260508083420 12 210 1.6 6.4 0.00 0.00 0.00 92 1015.6
20260508083342 12 177 1.6 6.4 0.00 0.00 0.00 92 1015.6
20260508083318 12 235 1.6 6.4 0.00 0.00 0.00 92 1015.6
20260508083214 12 214 1.6 6.4 0.00 0.00 0.00 92 1015.6
20260508083112 12 224 1.6 6.4 0.00 0.00 0.00 92 1015.6
20260508083012 12 223 1.6 6.4 0.00 0.00 0.00 92 1015.6
20260508082913 12 217 1.6 6.4 0.00 0.00 0.00 92 1015.6
20260508082844 12 141 1.6 6.4 0.00 0.00 0.00 92 1015.6
20260508082812 12 267 1.6 6.4 0.00 0.00 0.00 92 1015.6
20260508082709 12 267 1.6 6.4 0.00 0.00 0.00 92 1015.7
20260508082609 12 214 1.6 6.4 0.00 0.00 0.00 92 1015.7
20260508082509 12 211 1.6 6.4 0.00 0.00 0.00 92 1015.7
20260508082410 12 161 1.6 6.4 0.00 0.00 0.00 92 1015.7
20260508082344 12 162 1.6 6.4 0.00 0.00 0.00 92 1015.7
20260508082306 12 217 1.6 6.4 0.00 0.00 0.00 92 1015.7
20260508082205 12 181 1.6 6.4 0.00 0.00 0.00 92 1015.7
20260508082105 12 181 1.6 6.4 0.00 0.00 0.00 92 1015.7
20260508082005 12 212 1.6 6.4 0.00 0.00 0.00 92 1015.7
20260508081843 12 210 1.6 6.4 0.00 0.00 0.00 92 1015.7
20260508081800 12 228 1.6 6.4 0.00 0.00 0.00 92 1015.7
20260508081657 12 210 1.6 6.4 0.00 0.00 0.00 92 1015.7
20260508081557 13 195 1.6 6.4 0.00 0.00 0.00 92 1015.7
20260508081456 13 138 1.6 6.4 0.00 0.00 0.00 92 1015.7
20260508081356 13 148 1.6 6.4 0.00 0.00 0.00 92 1015.7
20260508081254 13 148 1.6 6.4 0.00 0.00 0.00 92 1015.7
20260508081151 13 141 1.6 6.4 0.00 0.00 0.00 92 1015.7
20260508081048 13 175 1.6 6.4 0.00 0.00 0.00 92 1015.7
20260508080949 13 226 1.6 6.4 0.00 0.00 0.00 92 1015.8
20260508080856 13 236 1.6 3.2 0.00 0.00 0.00 92 1015.7
20260508080748 13 177 1.6 3.2 0.00 0.00 0.00 91 1015.7
20260508080646 13 177 1.6 4.8 0.00 0.00 0.00 91 1015.7
20260508080547 13 207 1.6 4.8 0.00 0.00 0.00 91 1015.7
20260508080444 13 217 1.6 4.8 0.00 0.00 0.00 92 1015.7
20260508080347 13 210 1.6 4.8 0.00 0.00 0.00 91 1015.7
20260508080242 13 210 1.6 4.8 0.00 0.00 0.00 91 1015.7
20260508080142 13 210 1.6 4.8 0.00 0.00 0.00 91 1015.7
20260508080113 13 218 1.6 4.8 0.00 0.00 0.00 91 1015.7
20260508080040 13 210 1.6 4.8 0.00 0.00 0.00 91 1015.7
20260508075957 13 205 1.6 4.8 0.00 0.00 0.00 91 1015.7
20260508075839 13 218 1.6 4.8 0.00 0.00 0.00 91 1015.7
20260508075736 13 211 1.6 4.8 0.00 0.00 0.00 91 1015.7
20260508075635 13 192 1.6 4.8 0.00 0.00 0.00 91 1015.7
20260508075535 13 219 1.6 4.8 0.00 0.00 0.00 91 1015.7
20260508075432 13 139 1.6 4.8 0.00 0.00 0.00 91 1015.7
20260508075344 13 135 1.6 6.4 0.00 0.00 0.00 91 1015.7
20260508075333 13 136 1.6 6.4 0.00 0.00 0.00 91 1015.7
20260508075230 13 136 1.6 6.4 0.00 0.00 0.00 91 1015.7
20260508075128 13 240 1.6 6.4 0.00 0.00 0.00 91 1015.7
20260508075026 13 207 1.6 6.4 0.00 0.00 0.00 91 1015.6
20260508074928 13 166 1.6 6.4 0.00 0.00 0.00 91 1015.6
20260508074843 13 229 1.6 6.4 0.00 0.00 0.00 91 1015.6
20260508074826 13 228 1.6 6.4 0.00 0.00 0.00 91 1015.6
20260508074724 13 232 1.6 6.4 0.00 0.00 0.00 91 1015.7
20260508074625 13 154 1.6 6.4 0.00 0.00 0.00 91 1015.7
20260508074523 13 222 1.6 6.4 0.00 0.00 0.00 91 1015.7
20260508074422 13 127 1.6 6.4 0.00 0.00 0.00 91 1015.7
20260508074343 13 193 1.6 6.4 0.00 0.00 0.00 91 1015.7
20260508074320 13 205 1.6 6.4 0.00 0.00 0.00 91 1015.7
20260508074217 13 217 1.6 6.4 0.00 0.00 0.00 91 1015.7
20260508074115 13 198 1.6 6.4 0.00 0.00 0.00 91 1015.7
20260508074015 13 204 1.6 6.4 0.00 0.00 0.00 91 1015.7
20260508073914 13 123 1.6 6.4 0.00 0.00 0.00 91 1015.7
20260508073840 13 205 1.6 6.4 0.00 0.00 0.00 91 1015.7
20260508073814 13 165 1.6 6.4 0.00 0.00 0.00 91 1015.7
20260508073712 13 200 1.6 6.4 0.00 0.00 0.00 91 1015.7
20260508073609 13 217 1.6 6.4 0.00 0.00 0.00 91 1015.7
20260508073507 13 217 1.6 6.4 0.00 0.00 0.00 91 1015.7
20260508073407 13 203 1.6 6.4 0.00 0.00 0.00 91 1015.7
20260508073338 13 203 1.6 6.4 0.00 0.00 0.00 91 1015.7
20260508073307 13 203 1.6 6.4 0.00 0.00 0.00 91 1015.7
20260508073206 13 149 1.6 6.4 0.00 0.00 0.00 91 1015.7
20260508073103 13 149 3.2 8.0 0.00 0.00 0.00 91 1015.7
20260508073004 13 138 3.2 8.0 0.00 0.00 0.00 91 1015.6
20260508072903 13 218 3.2 8.0 0.00 0.00 0.00 91 1015.6
20260508072839 13 172 3.2 8.0 0.00 0.00 0.00 91 1015.6
20260508072801 13 117 3.2 8.0 0.00 0.00 0.00 91 1015.6
20260508072658 13 229 3.2 8.0 0.00 0.00 0.00 91 1015.6
20260508072554 13 211 3.2 8.0 0.00 0.00 0.00 91 1015.6
20260508072452 13 225 3.2 8.0 0.00 0.00 0.00 91 1015.6
20260508072353 13 162 3.2 8.0 0.00 0.00 0.00 91 1015.6
20260508072333 13 132 3.2 8.0 0.00 0.00 0.00 91 1015.5
20260508072252 13 236 3.2 8.0 0.00 0.00 0.00 91 1015.5
20260508072153 13 195 3.2 8.0 0.00 0.00 0.00 91 1015.6
20260508072048 13 214 3.2 6.4 0.00 0.00 0.00 91 1015.6
20260508071949 13 214 3.2 6.4 0.00 0.00 0.00 90 1015.5
20260508071848 13 143 3.2 6.4 0.00 0.00 0.00 90 1015.6
20260508071832 13 208 3.2 6.4 0.00 0.00 0.00 90 1015.5
20260508071749 13 138 3.2 6.4 0.00 0.00 0.00 90 1015.5
20260508071646 13 226 3.2 6.4 0.00 0.00 0.00 90 1015.5
20260508071551 13 223 1.6 6.4 0.00 0.00 0.00 90 1015.5
20260508071541 13 211 3.2 6.4 0.00 0.00 0.00 90 1015.5
20260508071451 13 218 1.6 6.4 0.00 0.00 0.00 90 1015.5
20260508071442 13 239 1.6 6.4 0.00 0.00 0.00 90 1015.5
20260508071242 13 228 1.6 6.4 0.00 0.00 0.00 90 1015.5
20260508071140 13 229 1.6 6.4 0.00 0.00 0.00 90 1015.5
20260508071035 13 145 1.6 6.4 0.00 0.00 0.00 90 1015.5
20260508070934 13 172 1.6 6.4 0.00 0.00 0.00 90 1015.5
20260508070832 13 200 1.6 6.4 0.00 0.00 0.00 90 1015.4
20260508070735 13 241 1.6 6.4 0.00 0.00 0.00 90 1015.4
20260508070634 13 155 1.6 6.4 0.00 0.00 0.00 90 1015.5
20260508070531 13 125 1.6 6.4 0.00 0.00 0.00 90 1015.5
20260508070431 13 138 1.6 6.4 0.00 0.00 0.00 90 1015.5
20260508070330 13 144 1.6 4.8 0.00 0.00 0.00 90 1015.5
20260508070231 13 143 1.6 4.8 0.00 0.00 0.00 90 1015.6
20260508070128 13 198 1.6 4.8 0.00 0.00 0.00 90 1015.6
20260508070023 13 205 1.6 4.8 0.00 0.00 0.00 90 1015.5
20260508065923 13 203 1.6 4.8 0.00 0.00 0.00 90 1015.5
20260508065829 13 152 1.6 4.8 0.00 0.00 0.00 90 1015.5
20260508065822 13 145 1.6 4.8 0.00 0.00 0.00 90 1015.5
20260508065723 13 230 1.6 4.8 0.00 0.00 0.00 90 1015.6
20260508065622 13 132 1.6 4.8 0.00 0.00 0.00 90 1015.5
20260508065516 13 132 1.6 4.8 0.00 0.00 0.00 90 1015.5
20260508065417 13 139 1.6 4.8 0.00 0.00 0.00 89 1015.5
20260508065324 13 141 1.6 4.8 0.00 0.00 0.00 89 1015.5
20260508065315 13 146 1.6 4.8 0.00 0.00 0.00 89 1015.5
20260508065215 13 155 1.6 4.8 0.00 0.00 0.00 89 1015.5
20260508065115 13 187 1.6 6.4 0.00 0.00 0.00 89 1015.6
20260508065052 14 146 1.6 6.4 0.00 0.00 0.00 89 1015.5
20260508065014 14 146 1.6 6.4 0.00 0.00 0.00 89 1015.5
20260508064936 14 145 1.6 6.4 0.00 0.00 0.00 89 1015.5
20260508064814 14 145 1.6 6.4 0.00 0.00 0.00 89 1015.5
20260508064715 14 146 1.6 6.4 0.00 0.00 0.00 89 1015.5
20260508064615 14 146 1.6 6.4 0.00 0.00 0.00 89 1015.5
20260508064516 14 147 1.6 6.4 0.00 0.00 0.00 89 1015.5
20260508064415 14 143 1.6 6.4 0.00 0.00 0.00 89 1015.4
20260508064311 14 200 1.6 6.4 0.00 0.00 0.00 89 1015.4
20260508064211 14 203 1.6 6.4 0.00 0.00 0.00 89 1015.4
20260508064110 14 233 1.6 6.4 0.00 0.00 0.00 89 1015.4
20260508064011 14 203 1.6 6.4 0.00 0.00 0.00 89 1015.4
20260508063911 14 203 1.6 6.4 0.00 0.00 0.00 89 1015.4
20260508063811 14 203 1.6 6.4 0.00 0.00 0.00 89 1015.4
20260508063711 14 217 1.6 6.4 0.00 0.00 0.00 89 1015.4
20260508063611 14 211 1.6 6.4 0.00 0.00 0.00 89 1015.4
20260508063511 14 233 1.6 6.4 0.00 0.00 0.00 89 1015.4
20260508063411 14 243 1.6 6.4 0.00 0.00 0.00 89 1015.4
20260508063325 14 200 1.6 6.4 0.00 0.00 0.00 89 1015.3
20260508063311 14 232 1.6 6.4 0.00 0.00 0.00 89 1015.3
20260508063211 14 221 1.6 6.4 0.00 0.00 0.00 88 1015.3
20260508063111 14 221 1.6 6.4 0.00 0.00 0.00 88 1015.3
20260508063011 14 215 1.6 4.8 0.00 0.00 0.00 88 1015.3
20260508062911 14 127 1.6 4.8 0.00 0.00 0.00 88 1015.3
20260508062826 14 127 1.6 4.8 0.00 0.00 0.00 88 1015.3
20260508062811 14 146 1.6 4.8 0.00 0.00 0.00 88 1015.3
20260508062711 14 145 1.6 4.8 0.00 0.00 0.00 88 1015.3
20260508062611 14 146 1.6 4.8 0.00 0.00 0.00 88 1015.3
20260508062511 14 146 1.6 4.8 0.00 0.00 0.00 88 1015.3
20260508062407 14 145 1.6 4.8 0.00 0.00 0.00 88 1015.3
20260508062307 14 146 1.6 4.8 0.00 0.00 0.00 88 1015.3
20260508062206 14 142 1.6 4.8 0.00 0.00 0.00 88 1015.2
20260508062107 14 214 1.6 4.8 0.00 0.00 0.00 87 1015.2
20260508062007 14 205 1.6 3.2 0.00 0.00 0.00 87 1015.3
20260508061907 15 125 1.6 3.2 0.00 0.00 0.00 87 1015.3
20260508061822 15 126 1.6 3.2 0.00 0.00 0.00 87 1015.3
20260508061807 15 131 1.6 3.2 0.00 0.00 0.00 87 1015.3
20260508061706 15 131 1.6 3.2 0.00 0.00 0.00 87 1015.3
20260508061607 15 131 1.6 3.2 0.00 0.00 0.00 87 1015.3
20260508061507 15 131 1.6 3.2 0.00 0.00 0.00 87 1015.3
20260508061407 15 131 1.6 3.2 0.00 0.00 0.00 87 1015.3
20260508061307 15 148 1.6 3.2 0.00 0.00 0.00 87 1015.3
20260508061208 15 148 1.6 6.4 0.00 0.00 0.00 87 1015.2
20260508061108 15 269 1.6 6.4 0.00 0.00 0.00 87 1015.2
20260508061007 15 203 1.6 6.4 0.00 0.00 0.00 87 1015.2
20260508060907 15 192 1.6 6.4 0.00 0.00 0.00 86 1015.2
20260508060822 15 226 1.6 6.4 0.00 0.00 0.00 86 1015.3
20260508060807 15 214 1.6 6.4 0.00 0.00 0.00 86 1015.3
20260508060707 15 214 1.6 6.4 0.00 0.00 0.00 86 1015.2
20260508060607 15 198 1.6 6.4 0.00 0.00 0.00 86 1015.2
20260508060504 15 150 3.2 6.4 0.00 0.00 0.00 86 1015.2
20260508060403 15 151 3.2 6.4 0.00 0.00 0.00 86 1015.3
20260508060322 15 136 3.2 6.4 0.00 0.00 0.00 86 1015.3
20260508060303 15 127 3.2 6.4 0.00 0.00 0.00 86 1015.3
20260508060203 15 135 1.6 4.8 0.00 0.00 0.00 86 1015.2
20260508060103 15 212 1.6 4.8 0.00 0.00 0.00 86 1015.2
20260508060005 15 155 1.6 4.8 0.00 0.00 0.00 85 1015.2
20260508055904 15 158 1.6 4.8 0.00 0.00 0.00 85 1015.2
20260508055822 15 146 1.6 4.8 0.00 0.00 0.00 85 1015.2
20260508055803 15 171 1.6 4.8 0.00 0.00 0.00 85 1015.2
20260508055702 15 146 1.6 4.8 0.00 0.00 0.00 85 1015.1
20260508055603 15 211 1.6 4.8 0.00 0.00 0.00 85 1015.1
20260508055503 15 239 1.6 4.8 0.00 0.00 0.00 85 1015.1
20260508055402 15 221 1.6 4.8 0.00 0.00 0.00 85 1015.1
20260508055322 15 203 1.6 6.4 0.00 0.00 0.00 85 1015.1
20260508055309 15 239 1.6 6.4 0.00 0.00 0.00 85 1015.1
20260508055306 15 148 1.6 6.4 0.00 0.00 0.00 85 1015.1
20260508055203 15 148 1.6 6.4 0.00 0.00 0.00 85 1015.1
20260508055152 15 239 1.6 6.4 0.00 0.00 0.00 85 1015.2
20260508055002 15 239 1.6 6.4 0.00 0.00 0.00 85 1015.1
20260508054933 15 240 1.6 6.4 0.00 0.00 0.00 85 1015.1
20260508054803 15 239 1.6 6.4 0.00 0.00 0.00 85 1015.1
20260508054703 15 201 1.6 6.4 0.00 0.00 0.00 84 1015.1
20260508054559 15 203 1.6 6.4 0.00 0.00 0.00 84 1015.1
20260508054459 15 205 1.6 8.0 0.00 0.00 0.00 84 1015.1
20260508054400 15 211 3.2 8.0 0.00 0.00 0.00 84 1015.1
20260508054322 15 212 3.2 8.0 0.00 0.00 0.00 84 1015.1
20260508054259 15 158 3.2 8.0 0.00 0.00 0.00 84 1015.1
20260508054158 15 248 3.2 8.0 0.00 0.00 0.00 84 1015.1
20260508054059 15 248 3.2 8.0 0.00 0.00 0.00 84 1015.1
20260508053958 15 248 3.2 8.0 0.00 0.00 0.00 84 1015.1
20260508053859 16 242 3.2 8.0 0.00 0.00 0.00 84 1015.1
20260508053821 16 205 4.8 8.0 0.00 0.00 0.00 83 1015.1
20260508053758 16 143 4.8 12.9 0.00 0.00 0.00 83 1015.1
20260508053659 16 225 4.8 12.9 0.00 0.00 0.00 83 1015.0
20260508053559 16 222 4.8 12.9 0.00 0.00 0.00 83 1015.0
20260508053459 16 210 4.8 12.9 0.00 0.00 0.00 83 1015.0
20260508053359 16 146 4.8 12.9 0.00 0.00 0.00 83 1015.0
20260508053318 16 203 4.8 12.9 0.00 0.00 0.00 83 1015.0
20260508053300 16 238 4.8 12.9 0.00 0.00 0.00 83 1015.0
20260508053159 16 235 4.8 12.9 0.00 0.00 0.00 83 1015.0
20260508053058 16 219 4.8 12.9 0.00 0.00 0.00 83 1015.0
20260508052959 16 233 4.8 12.9 0.00 0.00 0.00 83 1015.0
20260508052859 16 250 4.8 12.9 0.00 0.00 0.00 83 1015.0
20260508052818 16 226 4.8 12.9 0.00 0.00 0.00 83 1015.0
20260508052759 16 260 4.8 11.3 0.00 0.00 0.00 82 1015.0
20260508052655 16 211 4.8 11.3 0.00 0.00 0.00 82 1015.0
20260508052555 16 225 4.8 16.1 0.00 0.00 0.00 82 1015.0
20260508052456 16 207 4.8 16.1 0.00 0.00 0.00 82 1015.0
20260508052357 16 250 4.8 16.1 0.00 0.00 0.00 82 1015.0
20260508052319 16 243 4.8 16.1 0.00 0.00 0.00 82 1015.0
20260508052255 16 232 4.8 16.1 0.00 0.00 0.00 82 1015.0
20260508052155 16 250 4.8 16.1 0.00 0.00 0.00 82 1015.0
20260508052055 16 230 4.8 16.1 0.00 0.00 0.00 82 1015.0
20260508051955 16 245 4.8 16.1 0.00 0.00 0.00 82 1015.0
20260508051856 16 229 4.8 16.1 0.00 0.00 0.00 82 1015.0
20260508051820 16 238 4.8 16.1 0.00 0.00 0.00 82 1015.0
20260508051754 16 239 4.8 16.1 0.00 0.00 0.00 81 1015.0
20260508051655 16 248 4.8 16.1 0.00 0.00 0.00 81 1015.1
20260508051555 16 242 4.8 12.9 0.00 0.00 0.00 81 1015.1
20260508051454 16 245 4.8 12.9 0.00 0.00 0.00 81 1015.1
20260508051355 16 231 3.2 12.9 0.00 0.00 0.00 81 1015.1
20260508051329 16 243 4.8 12.9 0.00 0.00 0.00 81 1015.0
20260508051255 16 248 4.8 12.9 0.00 0.00 0.00 81 1015.0
20260508051155 16 276 3.2 12.9 0.00 0.00 0.00 81 1015.0
20260508051055 16 240 3.2 12.9 0.00 0.00 0.00 81 1015.0
20260508050955 16 238 4.8 12.9 0.00 0.00 0.00 81 1015.0
20260508050856 16 240 4.8 12.9 0.00 0.00 0.00 81 1015.0
20260508050819 16 253 4.8 12.9 0.00 0.00 0.00 81 1014.9
20260508050750 16 233 4.8 12.9 0.00 0.00 0.00 81 1014.9
20260508050651 16 233 4.8 12.9 0.00 0.00 0.00 81 1015.0
20260508050551 16 242 4.8 12.9 0.00 0.00 0.00 80 1014.9
20260508050539 16 267 6.4 16.1 0.00 0.00 0.00 80 1014.9
20260508050451 16 233 4.8 12.9 0.00 0.00 0.00 80 1014.9
20260508050427 16 233 6.4 12.9 0.00 0.00 0.00 80 1014.8
20260508050252 16 238 6.4 17.7 0.00 0.00 0.00 80 1014.9
20260508050150 17 232 6.4 17.7 0.00 0.00 0.00 80 1014.9
20260508050051 17 239 6.4 17.7 0.00 0.00 0.00 80 1014.8
20260508045951 17 242 6.4 17.7 0.00 0.00 0.00 80 1014.8
20260508045851 17 248 6.4 17.7 0.00 0.00 0.00 80 1014.9
20260508045816 17 248 6.4 17.7 0.00 0.00 0.00 80 1014.9
20260508045751 17 235 6.4 17.7 0.00 0.00 0.00 80 1014.9
20260508045651 17 238 6.4 17.7 0.00 0.00 0.00 80 1014.8
20260508045550 17 241 6.4 17.7 0.00 0.00 0.00 80 1014.8
20260508045534 17 245 6.4 17.7 0.00 0.00 0.00 80 1014.8
20260508045451 17 224 8.0 17.7 0.00 0.00 0.00 80 1014.8
20260508045428 17 240 8.0 17.7 0.00 0.00 0.00 80 1014.8
20260508045251 17 243 6.4 17.7 0.00 0.00 0.00 80 1014.8
20260508045151 17 232 6.4 17.7 0.00 0.00 0.00 79 1014.8
20260508045051 17 233 8.0 17.7 0.00 0.00 0.00 79 1014.8
20260508044951 17 255 8.0 17.7 0.00 0.00 0.00 79 1014.8
20260508044847 17 277 6.4 16.1 0.00 0.00 0.00 79 1014.8
20260508044812 17 211 8.0 16.1 0.00 0.00 0.00 79 1014.7
20260508044747 17 235 8.0 16.1 0.00 0.00 0.00 79 1014.7
20260508044649 17 222 6.4 16.1 0.00 0.00 0.00 79 1014.8
20260508044547 17 225 6.4 16.1 0.00 0.00 0.00 79 1014.8
20260508044447 17 239 6.4 16.1 0.00 0.00 0.00 79 1014.7
20260508044347 17 208 6.4 16.1 0.00 0.00 0.00 79 1014.7
20260508044312 17 214 4.8 16.1 0.00 0.00 0.00 79 1014.7
20260508044247 17 205 4.8 16.1 0.00 0.00 0.00 79 1014.7
20260508044147 17 236 4.8 12.9 0.00 0.00 0.00 79 1014.8
20260508044047 17 240 4.8 12.9 0.00 0.00 0.00 79 1014.7
20260508043947 17 239 4.8 12.9 0.00 0.00 0.00 79 1014.7
20260508043847 17 253 4.8 17.7 0.00 0.00 0.00 79 1014.7
20260508043812 17 248 4.8 17.7 0.00 0.00 0.00 79 1014.7
20260508043747 17 250 4.8 17.7 0.00 0.00 0.00 79 1014.7
20260508043650 17 243 4.8 17.7 0.00 0.00 0.00 79 1014.7
20260508043547 17 232 6.4 17.7 0.00 0.00 0.00 79 1014.7
20260508043447 17 243 6.4 17.7 0.00 0.00 0.00 79 1014.7
20260508043347 17 236 6.4 17.7 0.00 0.00 0.00 79 1014.7
20260508043314 17 252 6.4 17.7 0.00 0.00 0.00 79 1014.7
20260508043247 17 239 6.4 17.7 0.00 0.00 0.00 79 1014.7
20260508043147 17 144 6.4 17.7 0.00 0.00 0.00 79 1014.6
20260508043047 17 194 8.0 17.7 0.00 0.00 0.00 79 1014.6
20260508042944 17 214 8.0 17.7 0.00 0.00 0.00 79 1014.6
20260508042843 17 223 8.0 17.7 0.00 0.00 0.00 79 1014.6
20260508042812 17 238 6.4 17.7 0.00 0.00 0.00 78 1014.6
20260508042743 17 219 6.4 17.7 0.00 0.00 0.00 78 1014.6
20260508042643 17 248 8.0 17.7 0.00 0.00 0.00 78 1014.5
20260508042543 18 240 6.4 17.7 0.00 0.00 0.00 78 1014.6
20260508042443 18 242 6.4 17.7 0.00 0.00 0.00 78 1014.6
20260508042343 18 225 6.4 17.7 0.00 0.00 0.00 78 1014.6
20260508042314 18 207 6.4 17.7 0.00 0.00 0.00 78 1014.6
20260508042243 18 259 6.4 12.9 0.00 0.00 0.00 78 1014.6
20260508042144 18 259 6.4 12.9 0.00 0.00 0.00 78 1014.6
20260508042043 18 218 6.4 14.5 0.00 0.00 0.00 78 1014.5
20260508041943 18 232 6.4 14.5 0.00 0.00 0.00 78 1014.6
20260508041843 18 239 6.4 14.5 0.00 0.00 0.00 78 1014.5
20260508041812 18 232 6.4 14.5 0.00 0.00 0.00 78 1014.5
20260508041743 18 229 6.4 14.5 0.00 0.00 0.00 78 1014.5
20260508041643 18 241 6.4 14.5 0.00 0.00 0.00 78 1014.5
20260508041544 18 233 6.4 14.5 0.00 0.00 0.00 78 1014.5
20260508041443 18 236 6.4 14.5 0.00 0.00 0.00 78 1014.5
20260508041343 18 231 6.4 17.7 0.00 0.00 0.00 78 1014.5
20260508041314 18 250 6.4 17.7 0.00 0.00 0.00 78 1014.5
20260508041243 18 250 6.4 17.7 0.00 0.00 0.00 78 1014.5
20260508041143 18 257 6.4 17.7 0.00 0.00 0.00 78 1014.5
20260508041040 18 226 8.0 17.7 0.00 0.00 0.00 78 1014.5
20260508040938 18 248 8.0 17.7 0.00 0.00 0.00 78 1014.5
20260508040839 18 242 8.0 17.7 0.00 0.00 0.00 77 1014.5
20260508040813 18 228 8.0 17.7 0.00 0.00 0.00 77 1014.5
20260508040739 18 243 8.0 17.7 0.00 0.00 0.00 77 1014.5
20260508040639 18 252 8.0 17.7 0.00 0.00 0.00 77 1014.5
20260508040539 18 242 8.0 17.7 0.00 0.00 0.00 77 1014.4
20260508040439 18 228 8.0 17.7 0.00 0.00 0.00 77 1014.4
20260508040338 18 231 8.0 19.3 0.00 0.00 0.00 77 1014.4
20260508040310 18 214 8.0 19.3 0.00 0.00 0.00 77 1014.4
20260508040239 18 236 8.0 19.3 0.00 0.00 0.00 77 1014.4
20260508040139 18 250 8.0 19.3 0.00 0.00 0.00 77 1014.4
20260508040039 18 239 6.4 19.3 0.00 0.00 0.00 77 1014.4
20260508040030 18 217 6.4 19.3 0.00 0.00 0.00 76 1014.4
20260508035939 18 259 6.4 19.3 0.00 0.00 0.00 77 1014.3
20260508035920 18 234 6.4 19.3 0.00 0.00 0.00 76 1014.4
20260508035739 18 274 6.4 19.3 0.00 0.00 0.00 76 1014.3
20260508035639 18 236 6.4 19.3 0.00 0.00 0.00 76 1014.3
20260508035538 19 246 6.4 19.3 0.00 0.00 0.00 76 1014.3
20260508035439 19 236 4.8 19.3 0.00 0.00 0.00 76 1014.3
20260508035338 19 273 4.8 16.1 0.00 0.00 0.00 76 1014.3
20260508035309 19 269 4.8 16.1 0.00 0.00 0.00 76 1014.3
20260508035239 19 238 4.8 16.1 0.00 0.00 0.00 76 1014.3
20260508035134 19 243 4.8 16.1 0.00 0.00 0.00 76 1014.3
20260508035035 19 249 4.8 16.1 0.00 0.00 0.00 76 1014.3
20260508034935 19 224 4.8 16.1 0.00 0.00 0.00 76 1014.3
20260508034836 19 236 4.8 16.1 0.00 0.00 0.00 76 1014.3
20260508034809 19 226 4.8 16.1 0.00 0.00 0.00 76 1014.3
20260508034735 19 242 4.8 16.1 0.00 0.00 0.00 76 1014.2
20260508034635 19 251 4.8 11.3 0.00 0.00 0.00 75 1014.3
20260508034540 19 219 6.4 19.3 0.00 0.00 0.00 75 1014.2
20260508034535 19 239 6.4 19.3 0.00 0.00 0.00 75 1014.2
20260508034435 19 222 6.4 19.3 0.00 0.00 0.00 75 1014.2
20260508034420 19 234 6.4 19.3 0.00 0.00 0.00 75 1014.2
20260508034235 19 243 6.4 19.3 0.00 0.00 0.00 75 1014.2
20260508034135 19 240 6.4 19.3 0.00 0.00 0.00 75 1014.2
20260508034035 19 243 8.0 19.3 0.00 0.00 0.00 75 1014.2
20260508033935 19 236 8.0 19.3 0.00 0.00 0.00 75 1014.2
20260508033835 19 217 8.0 19.3 0.00 0.00 0.00 74 1014.2
20260508033810 19 238 8.0 19.3 0.00 0.00 0.00 74 1014.2
20260508033735 19 239 8.0 19.3 0.00 0.00 0.00 74 1014.2
20260508033635 19 232 8.0 19.3 0.00 0.00 0.00 74 1014.2
20260508033536 19 235 6.4 16.1 0.00 0.00 0.00 74 1014.1
20260508033435 19 239 6.4 16.1 0.00 0.00 0.00 74 1014.1
20260508033335 20 233 6.4 16.1 0.00 0.00 0.00 74 1014.2
20260508033310 20 236 6.4 16.1 0.00 0.00 0.00 74 1014.2
20260508033232 20 236 6.4 16.1 0.00 0.00 0.00 74 1014.2
20260508033131 20 221 6.4 16.1 0.00 0.00 0.00 73 1014.2
20260508033031 20 217 4.8 16.1 0.00 0.00 0.00 73 1014.1
20260508032931 20 239 4.8 12.9 0.00 0.00 0.00 73 1014.1
20260508032831 20 208 3.2 12.9 0.00 0.00 0.00 73 1014.1
20260508032809 20 249 3.2 11.3 0.00 0.00 0.00 73 1014.1
20260508032731 20 238 3.2 11.3 0.00 0.00 0.00 73 1014.2
20260508032631 20 243 3.2 11.3 0.00 0.00 0.00 73 1014.2
20260508032531 20 243 3.2 11.3 0.00 0.00 0.00 73 1014.1
20260508032431 20 248 3.2 11.3 0.00 0.00 0.00 73 1014.1
20260508032332 20 215 3.2 8.0 0.00 0.00 0.00 73 1014.1
20260508032309 20 215 3.2 8.0 0.00 0.00 0.00 72 1014.1
20260508032231 20 229 3.2 8.0 0.00 0.00 0.00 72 1014.1
20260508032131 20 243 4.8 9.7 0.00 0.00 0.00 72 1014.1
20260508032031 20 236 4.8 14.5 0.00 0.00 0.00 72 1014.1
20260508031931 20 236 4.8 14.5 0.00 0.00 0.00 72 1014.1
20260508031831 20 240 4.8 14.5 0.00 0.00 0.00 72 1014.1
20260508031805 20 243 4.8 14.5 0.00 0.00 0.00 72 1014.1
20260508031731 20 232 4.8 14.5 0.00 0.00 0.00 72 1014.0
20260508031631 20 239 6.4 14.5 0.00 0.00 0.00 72 1014.0
20260508031530 20 228 6.4 14.5 0.00 0.00 0.00 72 1014.0
20260508031432 20 239 6.4 14.5 0.00 0.00 0.00 73 1014.0
20260508031329 20 239 8.0 14.5 0.00 0.00 0.00 72 1014.0
20260508031305 20 243 8.0 14.5 0.00 0.00 0.00 72 1014.0
20260508031227 20 235 6.4 14.5 0.00 0.00 0.00 72 1014.0
20260508031031 21 248 8.0 19.3 0.00 0.00 0.00 72 1013.9
20260508030927 21 238 8.0 19.3 0.00 0.00 0.00 72 1013.9
20260508030827 21 243 8.0 19.3 0.00 0.00 0.00 72 1013.9
20260508030804 21 221 8.0 19.3 0.00 0.00 0.00 72 1013.9
20260508030727 21 214 8.0 19.3 0.00 0.00 0.00 72 1013.9
20260508030628 21 225 8.0 19.3 0.00 0.00 0.00 72 1013.9
20260508030528 21 232 8.0 19.3 0.00 0.00 0.00 72 1013.9
20260508030427 21 229 8.0 19.3 0.00 0.00 0.00 72 1014.0
20260508030327 21 255 6.4 19.3 0.00 0.00 0.00 72 1013.9
20260508030304 21 239 6.4 19.3 0.00 0.00 0.00 72 1013.9
20260508030228 21 236 6.4 19.3 0.00 0.00 0.00 72 1013.9
20260508030128 21 242 6.4 19.3 0.00 0.00 0.00 71 1013.9
20260508030027 21 256 6.4 16.1 0.00 0.00 0.00 71 1013.9
20260508025927 21 197 6.4 17.7 0.00 0.00 0.00 71 1013.9
20260508025827 21 253 6.4 17.7 0.00 0.00 0.00 71 1013.9
20260508025809 21 216 6.4 17.7 0.00 0.00 0.00 71 1013.9
20260508025726 22 213 6.4 17.7 0.00 0.00 0.00 71 1013.9
20260508025627 22 148 6.4 17.7 0.00 0.00 0.00 71 1013.9
20260508025527 22 201 6.4 17.7 0.00 0.00 0.00 70 1013.9
20260508025423 22 233 6.4 17.7 0.00 0.00 0.00 70 1013.9
20260508025323 22 233 6.4 17.7 0.00 0.00 0.00 70 1013.9
20260508025306 22 231 6.4 17.7 0.00 0.00 0.00 70 1013.9
20260508025223 22 231 6.4 17.7 0.00 0.00 0.00 70 1013.9
20260508025124 22 232 6.4 17.7 0.00 0.00 0.00 70 1013.8
20260508025024 22 207 6.4 17.7 0.00 0.00 0.00 69 1013.9
20260508024923 22 228 6.4 16.1 0.00 0.00 0.00 69 1013.8
20260508024824 22 240 4.8 16.1 0.00 0.00 0.00 69 1013.8
20260508024805 22 245 4.8 11.3 0.00 0.00 0.00 69 1013.8
20260508024723 22 250 4.8 11.3 0.00 0.00 0.00 69 1013.8
20260508024623 22 207 6.4 11.3 0.00 0.00 0.00 69 1013.9
20260508024525 22 249 6.4 11.3 0.00 0.00 0.00 69 1013.8
20260508024423 22 236 6.4 14.5 0.00 0.00 0.00 69 1013.9
20260508024323 22 231 6.4 14.5 0.00 0.00 0.00 69 1013.8
20260508024306 22 241 6.4 14.5 0.00 0.00 0.00 69 1013.8
20260508024223 22 146 6.4 14.5 0.00 0.00 0.00 69 1013.8
20260508024123 22 219 6.4 14.5 0.00 0.00 0.00 68 1013.8
20260508024024 23 245 6.4 14.5 0.00 0.00 0.00 68 1013.8
20260508023923 23 264 8.0 14.5 0.00 0.00 0.00 68 1013.8
20260508023824 23 245 6.4 14.5 0.00 0.00 0.00 68 1013.8
20260508023805 23 228 6.4 14.5 0.00 0.00 0.00 67 1013.8
20260508023723 23 207 8.0 14.5 0.00 0.00 0.00 67 1013.8
20260508023623 23 226 8.0 14.5 0.00 0.00 0.00 67 1013.8
20260508023525 23 262 6.4 14.5 0.00 0.00 0.00 66 1013.8
20260508023519 23 248 8.0 14.5 0.00 0.00 0.00 66 1013.8
20260508023419 23 209 8.0 14.5 0.00 0.00 0.00 66 1013.8
20260508023411 23 240 6.4 14.5 0.00 0.00 0.00 66 1013.8
20260508023219 23 235 6.4 14.5 0.00 0.00 0.00 66 1013.7
20260508023119 23 253 8.0 14.5 0.00 0.00 0.00 66 1013.7
20260508023018 23 221 8.0 17.7 0.00 0.00 0.00 66 1013.7
20260508022919 23 228 8.0 19.3 0.00 0.00 0.00 65 1013.7
20260508022819 23 236 8.0 19.3 0.00 0.00 0.00 65 1013.7
20260508022801 23 207 8.0 19.3 0.00 0.00 0.00 65 1013.7
20260508022718 23 235 8.0 19.3 0.00 0.00 0.00 65 1013.7
20260508022620 23 205 8.0 19.3 0.00 0.00 0.00 65 1013.7
20260508022519 23 212 8.0 19.3 0.00 0.00 0.00 64 1013.7
20260508022419 23 240 9.7 22.5 0.00 0.00 0.00 64 1013.7
20260508022319 23 270 9.7 22.5 0.00 0.00 0.00 64 1013.7
20260508022301 23 277 9.7 22.5 0.00 0.00 0.00 64 1013.7
20260508022219 23 238 11.3 22.5 0.00 0.00 0.00 63 1013.7
20260508022120 23 201 11.3 22.5 0.00 0.00 0.00 63 1013.7
20260508022019 24 229 9.7 22.5 0.00 0.00 0.00 62 1013.7
20260508021919 24 255 9.7 22.5 0.00 0.00 0.00 61 1013.6
20260508021819 24 256 9.7 22.5 0.00 0.00 0.00 61 1013.6
20260508021800 24 252 9.7 22.5 0.00 0.00 0.00 61 1013.6
20260508021719 24 277 9.7 22.5 0.00 0.00 0.00 61 1013.6
20260508021615 24 200 8.0 22.5 0.00 0.00 0.00 61 1013.7
20260508021515 24 233 8.0 22.5 0.00 0.00 0.00 61 1013.6
20260508021415 24 248 8.0 20.9 0.00 0.00 0.00 61 1013.6
20260508021315 24 243 8.0 19.3 0.00 0.00 0.00 61 1013.6
20260508021301 24 214 8.0 19.3 0.00 0.00 0.00 61 1013.6
20260508021215 25 251 8.0 19.3 0.00 0.00 0.00 62 1013.6
20260508021115 25 225 8.0 16.1 0.00 0.00 0.00 63 1013.5
20260508021015 25 210 8.0 16.1 0.00 0.00 0.00 63 1013.6
20260508020914 25 221 8.0 16.1 0.00 0.00 0.00 63 1013.5
20260508020815 25 236 8.0 16.1 0.00 0.00 0.00 64 1013.5
20260508020801 25 238 8.0 16.1 0.00 0.00 0.00 64 1013.5
20260508020715 25 242 8.0 16.1 0.00 0.00 0.00 63 1013.5
20260508020615 25 228 8.0 16.1 0.00 0.00 0.00 63 1013.6
20260508020515 25 243 8.0 16.1 0.00 0.00 0.00 63 1013.6
20260508020414 25 256 8.0 16.1 0.00 0.00 0.00 63 1013.6
20260508020315 25 211 8.0 16.1 0.00 0.00 0.00 63 1013.6
20260508020301 25 236 8.0 16.1 0.00 0.00 0.00 63 1013.6
20260508020215 25 228 6.4 16.1 0.00 0.00 0.00 63 1013.6
20260508020115 25 228 6.4 16.1 0.00 0.00 0.00 63 1013.5
20260508020027 25 243 4.8 14.5 0.00 0.00 0.00 62 1013.5
20260508020015 25 250 6.4 16.1 0.00 0.00 0.00 62 1013.6
20260508015920 25 253 4.8 14.5 0.00 0.00 0.00 63 1013.5
20260508015911 25 187 4.8 14.5 0.00 0.00 0.00 62 1013.5
20260508015711 25 219 4.8 12.9 0.00 0.00 0.00 63 1013.6
20260508015611 25 250 4.8 12.9 0.00 0.00 0.00 63 1013.5
20260508015511 25 214 4.8 16.1 0.00 0.00 0.00 63 1013.5
20260508015410 25 250 4.8 17.7 0.00 0.00 0.00 63 1013.5
20260508015312 25 229 4.8 17.7 0.00 0.00 0.00 63 1013.6
20260508015305 25 241 4.8 17.7 0.00 0.00 0.00 63 1013.6
20260508015211 26 228 4.8 17.7 0.00 0.00 0.00 62 1013.6
20260508015111 26 277 6.4 17.7 0.00 0.00 0.00 62 1013.5
20260508015011 26 218 4.8 17.7 0.00 0.00 0.00 62 1013.5
20260508014911 26 233 6.4 17.7 0.00 0.00 0.00 62 1013.6
20260508014811 26 233 6.4 17.7 0.00 0.00 0.00 62 1013.6
20260508014758 26 242 6.4 17.7 0.00 0.00 0.00 62 1013.6
20260508014711 26 229 6.4 17.7 0.00 0.00 0.00 62 1013.6
20260508014611 26 191 6.4 17.7 0.00 0.00 0.00 61 1013.5
20260508014511 26 233 6.4 17.7 0.00 0.00 0.00 61 1013.6
20260508014411 26 217 4.8 11.3 0.00 0.00 0.00 61 1013.6
20260508014310 26 274 4.8 11.3 0.00 0.00 0.00 61 1013.6
20260508014257 26 224 4.8 11.3 0.00 0.00 0.00 61 1013.6
20260508014211 26 241 4.8 11.3 0.00 0.00 0.00 60 1013.6
20260508014111 26 225 4.8 11.3 0.00 0.00 0.00 60 1013.6
20260508014011 26 269 3.2 11.3 0.00 0.00 0.00 60 1013.6
20260508013911 26 226 3.2 11.3 0.00 0.00 0.00 59 1013.6
20260508013809 26 233 3.2 11.3 0.00 0.00 0.00 58 1013.6
20260508013758 26 239 3.2 11.3 0.00 0.00 0.00 58 1013.6
20260508013707 26 226 3.2 11.3 0.00 0.00 0.00 59 1013.6
20260508013607 26 225 3.2 11.3 0.00 0.00 0.00 58 1013.6
20260508013507 26 240 3.2 11.3 0.00 0.00 0.00 58 1013.6
20260508013406 26 235 3.2 11.3 0.00 0.00 0.00 58 1013.6
20260508013310 26 236 3.2 11.3 0.00 0.00 0.00 58 1013.6
20260508013258 26 260 3.2 11.3 0.00 0.00 0.00 58 1013.6
20260508013207 26 246 3.2 11.3 0.00 0.00 0.00 58 1013.6
20260508013107 26 235 3.2 9.7 0.00 0.00 0.00 59 1013.6
20260508013007 26 235 3.2 9.7 0.00 0.00 0.00 59 1013.6
20260508012907 26 234 3.2 9.7 0.00 0.00 0.00 58 1013.6
20260508012808 26 226 3.2 9.7 0.00 0.00 0.00 58 1013.6
20260508012757 26 226 3.2 9.7 0.00 0.00 0.00 58 1013.6
20260508012707 26 222 3.2 9.7 0.00 0.00 0.00 58 1013.6
20260508012607 27 208 3.2 9.7 0.00 0.00 0.00 58 1013.6
20260508012507 27 238 3.2 9.7 0.00 0.00 0.00 58 1013.6
20260508012406 27 207 3.2 8.0 0.00 0.00 0.00 58 1013.6
20260508012308 27 210 3.2 8.0 0.00 0.00 0.00 57 1013.6
20260508012256 27 242 3.2 8.0 0.00 0.00 0.00 57 1013.6
20260508012207 27 243 1.6 8.0 0.00 0.00 0.00 57 1013.6
20260508012107 27 243 1.6 8.0 0.00 0.00 0.00 57 1013.6
20260508012007 27 250 1.6 8.0 0.00 0.00 0.00 58 1013.6
20260508011903 27 248 1.6 8.0 0.00 0.00 0.00 58 1013.6
20260508011811 27 249 1.6 8.0 0.00 0.00 0.00 58 1013.6
20260508011758 27 225 1.6 8.0 0.00 0.00 0.00 58 1013.6
20260508011708 27 253 1.6 8.0 0.00 0.00 0.00 58 1013.6
20260508011603 27 226 1.6 8.0 0.00 0.00 0.00 58 1013.6
20260508011504 27 243 0.0 8.0 0.00 0.00 0.00 58 1013.6
20260508011403 27 322 0.0 4.8 0.00 0.00 0.00 59 1013.6
20260508011307 27 322 0.0 4.8 0.00 0.00 0.00 58 1013.6
20260508011257 27 323 0.0 4.8 0.00 0.00 0.00 58 1013.6
20260508011203 27 323 0.0 4.8 0.00 0.00 0.00 57 1013.6
20260508011103 27 323 1.6 8.0 0.00 0.00 0.00 58 1013.6
20260508011002 27 339 1.6 9.7 0.00 0.00 0.00 58 1013.6
20260508010903 27 339 1.6 9.7 0.00 0.00 0.00 58 1013.7
20260508010811 27 231 1.6 9.7 0.00 0.00 0.00 58 1013.7
20260508010800 27 232 1.6 9.7 0.00 0.00 0.00 58 1013.7
20260508010704 27 232 1.6 9.7 0.00 0.00 0.00 58 1013.7
20260508010603 27 232 1.6 9.7 0.00 0.00 0.00 58 1013.6
20260508010503 27 232 1.6 9.7 0.00 0.00 0.00 57 1013.6
20260508010403 27 232 1.6 9.7 0.00 0.00 0.00 58 1013.7
20260508010252 27 232 1.6 9.7 0.00 0.00 0.00 57 1013.6
20260508010204 27 229 1.6 9.7 0.00 0.00 0.00 57 1013.6
20260508010010 27 224 1.6 9.7 0.00 0.00 0.00 58 1013.7
20260508005959 27 222 0.0 8.0 0.00 0.00 0.00 58 1013.7
20260508005912 27 224 1.6 9.7 0.00 0.00 0.00 58 1013.7
20260508005903 27 224 1.6 9.7 0.00 0.00 0.00 58 1013.7
20260508005659 27 224 1.6 9.7 0.00 0.00 0.00 58 1013.6
20260508005559 27 223 1.6 9.7 0.00 0.00 0.00 58 1013.6
20260508005459 27 224 1.6 9.7 0.00 0.00 0.00 58 1013.7
20260508005359 27 224 1.6 9.7 0.00 0.00 0.00 58 1013.7
20260508005252 27 224 1.6 9.7 0.00 0.00 0.00 58 1013.7
20260508005201 27 224 1.6 9.7 0.00 0.00 0.00 57 1013.7
20260508005059 27 238 1.6 9.7 0.00 0.00 0.00 57 1013.6
20260508004959 27 248 0.0 9.7 0.00 0.00 0.00 57 1013.7
20260508004859 27 235 0.0 4.8 0.00 0.00 0.00 57 1013.7
20260508004753 27 240 0.0 4.8 0.00 0.00 0.00 57 1013.7
20260508004700 27 242 1.6 11.3 0.00 0.00 0.00 56 1013.7
20260508004559 27 242 1.6 11.3 0.00 0.00 0.00 56 1013.7
20260508004459 27 242 1.6 11.3 0.00 0.00 0.00 56 1013.8
20260508004359 27 242 1.6 11.3 0.00 0.00 0.00 56 1013.7
20260508004304 27 242 1.6 11.3 0.00 0.00 0.00 56 1013.7
20260508004253 27 241 1.6 11.3 0.00 0.00 0.00 56 1013.7
20260508004159 27 242 1.6 11.3 0.00 0.00 0.00 56 1013.7
20260508004055 27 242 1.6 11.3 0.00 0.00 0.00 56 1013.7
20260508003955 27 242 1.6 11.3 0.00 0.00 0.00 55 1013.7
20260508003855 27 235 1.6 11.3 0.00 0.00 0.00 55 1013.7
20260508003757 27 218 1.6 11.3 0.00 0.00 0.00 54 1013.8
20260508003655 27 233 1.6 11.3 0.00 0.00 0.00 55 1013.8
20260508003555 28 233 1.6 11.3 0.00 0.00 0.00 54 1013.8
20260508003455 28 233 1.6 11.3 0.00 0.00 0.00 54 1013.8
20260508003355 28 233 1.6 11.3 0.00 0.00 0.00 54 1013.8
20260508003256 28 229 1.6 11.3 0.00 0.00 0.00 53 1013.8
20260508003155 28 146 1.6 11.3 0.00 0.00 0.00 53 1013.8
20260508003055 28 222 1.6 11.3 0.00 0.00 0.00 53 1013.8
20260508003019 28 246 1.6 8.0 0.00 0.00 0.00 53 1013.8
20260508002954 28 357 0.0 4.8 0.00 0.00 0.00 54 1013.8
20260508002913 28 246 1.6 8.0 0.00 0.00 0.00 54 1013.8
20260508002903 28 246 1.6 8.0 0.00 0.00 0.00 53 1013.8
20260508002655 28 263 1.6 8.0 0.00 0.00 0.00 53 1013.8
20260508002556 28 263 1.6 8.0 0.00 0.00 0.00 53 1013.8
20260508002455 28 263 1.6 8.0 0.00 0.00 0.00 54 1013.8
20260508002355 28 263 1.6 8.0 0.00 0.00 0.00 54 1013.8
20260508002257 28 263 1.6 8.0 0.00 0.00 0.00 53 1013.8
20260508002151 28 263 1.6 8.0 0.00 0.00 0.00 52 1013.8
20260508001951 28 252 1.6 8.0 0.00 0.00 0.00 52 1013.8
20260508001851 28 217 1.6 8.0 0.00 0.00 0.00 51 1013.8
20260508001807 28 243 1.6 8.0 0.00 0.00 0.00 52 1013.9
20260508001655 28 231 1.6 8.0 0.00 0.00 0.00 51 1013.8
20260508001551 28 248 1.6 8.0 0.00 0.00 0.00 50 1013.8
20260508001451 28 245 1.6 8.0 0.00 0.00 0.00 51 1013.8
20260508001351 28 246 1.6 8.0 0.00 0.00 0.00 51 1013.8
20260508001254 28 198 1.6 8.0 0.00 0.00 0.00 52 1013.8
20260508001151 28 218 1.6 8.0 0.00 0.00 0.00 52 1013.9
20260508001051 28 217 1.6 8.0 0.00 0.00 0.00 51 1013.9
20260508000951 28 218 1.6 12.9 0.00 0.00 0.00 51 1013.8
20260508000852 28 222 1.6 12.9 0.00 0.00 0.00 51 1013.8
20260508000755 28 233 1.6 12.9 0.00 0.00 0.00 52 1013.8
20260508000651 28 150 1.6 12.9 0.00 0.00 0.00 52 1013.8
20260508000551 28 221 3.2 12.9 0.00 0.00 0.00 52 1013.8
20260508000451 28 165 3.2 12.9 0.00 0.00 0.00 53 1013.8
20260508000351 28 250 3.2 12.9 0.00 0.00 0.00 54 1013.9
20260508000250 28 288 3.2 12.9 0.00 0.00 0.00 54 1013.9
20260508000147 28 282 3.2 12.9 0.00 0.00 0.00 53 1013.8
20260508000047 28 260 3.2 12.9 0.00 0.00 0.00 53 1013.7
20260507235947 28 307 3.2 12.9 0.00 0.00 0.00 53 1013.8
20260507235847 28 307 4.8 12.9 0.00 0.00 0.00 52 1013.8
20260507235747 28 325 4.8 12.9 0.00 0.00 0.00 52 1013.8
20260507235651 28 245 4.8 12.9 0.00 0.00 0.00 52 1013.8
20260507235547 28 224 4.8 12.9 0.00 0.00 0.00 53 1013.8
20260507235446 28 231 4.8 12.9 0.00 0.00 0.00 52 1013.8
20260507235347 28 110 6.4 12.9 0.00 0.00 0.00 52 1013.8
20260507235255 28 158 4.8 12.9 0.00 0.00 0.00 52 1013.8
20260507235247 28 159 4.8 12.9 0.00 0.00 0.00 52 1013.8
20260507235147 28 266 6.4 12.9 0.00 0.00 0.00 52 1013.8
20260507235047 28 143 6.4 14.5 0.00 0.00 0.00 52 1013.8
20260507235017 28 226 6.4 14.5 0.00 0.00 0.00 51 1013.8
20260507234947 28 253 6.4 14.5 0.00 0.00 0.00 52 1013.8
20260507234905 28 253 6.4 14.5 0.00 0.00 0.00 51 1013.8
20260507234747 28 230 6.4 14.5 0.00 0.00 0.00 51 1013.8
20260507234652 28 210 6.4 14.5 0.00 0.00 0.00 51 1013.8
20260507234546 28 243 4.8 14.5 0.00 0.00 0.00 52 1013.8
20260507234510 29 176 4.8 14.5 0.00 0.00 0.00 51 1013.8
20260507234447 28 225 4.8 14.5 0.00 0.00 0.00 51 1013.8
20260507234359 28 249 4.8 14.5 0.00 0.00 0.00 52 1013.8
20260507234243 29 138 4.8 14.5 0.00 0.00 0.00 51 1013.9
20260507234143 29 236 4.8 14.5 0.00 0.00 0.00 50 1013.9
20260507234043 29 225 3.2 12.9 0.00 0.00 0.00 51 1013.9
20260507233943 29 236 3.2 12.9 0.00 0.00 0.00 51 1013.9
20260507233843 30 215 3.2 12.9 0.00 0.00 0.00 50 1013.8
20260507233749 30 193 1.6 11.3 0.00 0.00 0.00 50 1013.8
20260507233743 30 193 1.6 11.3 0.00 0.00 0.00 50 1013.9
20260507233643 30 217 1.6 11.3 0.00 0.00 0.00 50 1013.8
20260507233543 30 229 1.6 11.3 0.00 0.00 0.00 51 1013.9
20260507233443 30 228 3.2 11.3 0.00 0.00 0.00 50 1013.9
20260507233342 30 167 3.2 11.3 0.00 0.00 0.00 50 1013.9
20260507233252 30 146 3.2 11.3 0.00 0.00 0.00 52 1013.9
20260507233243 30 150 3.2 11.3 0.00 0.00 0.00 52 1013.8
20260507233143 30 158 3.2 11.3 0.00 0.00 0.00 52 1013.9
20260507233043 29 150 3.2 11.3 0.00 0.00 0.00 51 1013.9
20260507232942 29 149 3.2 11.3 0.00 0.00 0.00 51 1013.9
20260507232843 29 146 3.2 12.9 0.00 0.00 0.00 52 1013.9
20260507232743 29 224 3.2 12.9 0.00 0.00 0.00 51 1013.9
20260507232644 29 219 3.2 12.9 0.00 0.00 0.00 52 1013.9
20260507232543 29 167 1.6 12.9 0.00 0.00 0.00 51 1013.9
20260507232439 29 163 1.6 12.9 0.00 0.00 0.00 51 1013.9
20260507232339 29 239 1.6 12.9 0.00 0.00 0.00 52 1013.9
20260507232239 29 304 1.6 12.9 0.00 0.00 0.00 53 1013.9
20260507232139 29 240 3.2 12.9 0.00 0.00 0.00 52 1013.9
20260507232038 29 240 3.2 12.9 0.00 0.00 0.00 52 1014.0
20260507231939 29 240 1.6 12.9 0.00 0.00 0.00 51 1014.0
20260507231839 29 314 1.6 8.0 0.00 0.00 0.00 52 1014.0
20260507231746 29 219 1.6 8.0 0.00 0.00 0.00 52 1014.0
20260507231738 29 219 3.2 8.0 0.00 0.00 0.00 52 1014.0
20260507231639 29 219 3.2 8.0 0.00 0.00 0.00 52 1014.0
20260507231538 29 219 1.6 8.0 0.00 0.00 0.00 51 1014.0
20260507231439 29 210 1.6 8.0 0.00 0.00 0.00 50 1014.1
20260507231339 29 235 1.6 8.0 0.00 0.00 0.00 51 1014.1
20260507231241 29 145 1.6 8.0 0.00 0.00 0.00 53 1014.1
20260507231232 28 235 1.6 6.4 0.00 0.00 0.00 53 1014.2
20260507231139 29 145 1.6 8.0 0.00 0.00 0.00 52 1014.1
20260507231117 29 229 1.6 8.0 0.00 0.00 0.00 53 1014.1
20260507230939 28 350 1.6 6.4 0.00 0.00 0.00 53 1014.1
20260507230905 28 6 1.6 6.4 0.00 0.00 0.00 53 1014.2
20260507230740 28 235 1.6 6.4 0.00 0.00 0.00 53 1014.2
20260507230641 28 256 1.6 8.0 0.00 0.00 0.00 53 1014.2
20260507230537 28 194 1.6 8.0 0.00 0.00 0.00 53 1014.2
20260507230435 28 316 3.2 8.0 0.00 0.00 0.00 53 1014.2
20260507230334 28 316 3.2 8.0 0.00 0.00 0.00 53 1014.2
20260507230251 28 316 3.2 8.0 0.00 0.00 0.00 52 1014.2
20260507230242 28 316 3.2 8.0 0.00 0.00 0.00 52 1014.3
20260507230134 28 316 3.2 9.7 0.00 0.00 0.00 52 1014.3
20260507230035 28 239 4.8 9.7 0.00 0.00 0.00 53 1014.3
20260507225935 28 238 4.8 9.7 0.00 0.00 0.00 53 1014.3
20260507225839 28 228 4.8 9.7 0.00 0.00 0.00 53 1014.4
20260507225739 28 228 4.8 9.7 0.00 0.00 0.00 52 1014.4
20260507225635 28 210 4.8 9.7 0.00 0.00 0.00 52 1014.4
20260507225535 28 221 4.8 9.7 0.00 0.00 0.00 53 1014.4
20260507225435 28 208 4.8 9.7 0.00 0.00 0.00 53 1014.4
20260507225336 28 243 4.8 9.7 0.00 0.00 0.00 54 1014.4
20260507225245 28 141 4.8 9.7 0.00 0.00 0.00 53 1014.4
20260507225235 28 156 4.8 9.7 0.00 0.00 0.00 53 1014.4
20260507225135 28 215 4.8 12.9 0.00 0.00 0.00 52 1014.4
20260507225035 28 235 4.8 12.9 0.00 0.00 0.00 52 1014.5
20260507224934 29 214 3.2 12.9 0.00 0.00 0.00 52 1014.5
20260507224835 29 236 3.2 12.9 0.00 0.00 0.00 52 1014.5
20260507224735 29 225 3.2 12.9 0.00 0.00 0.00 52 1014.5
20260507224630 29 231 3.2 12.9 0.00 0.00 0.00 53 1014.5
20260507224531 29 255 3.2 12.9 0.00 0.00 0.00 52 1014.5
20260507224431 29 256 3.2 12.9 0.00 0.00 0.00 53 1014.6
20260507224331 29 250 3.2 12.9 0.00 0.00 0.00 52 1014.5
20260507224242 29 242 3.2 12.9 0.00 0.00 0.00 52 1014.6
20260507224235 29 217 3.2 12.9 0.00 0.00 0.00 52 1014.6
20260507224131 28 207 3.2 9.7 0.00 0.00 0.00 55 1014.6
20260507224031 28 224 3.2 9.7 0.00 0.00 0.00 55 1014.6
20260507223931 28 224 3.2 9.7 0.00 0.00 0.00 54 1014.6
20260507223831 28 224 3.2 9.7 0.00 0.00 0.00 54 1014.6
20260507223731 28 224 3.2 9.7 0.00 0.00 0.00 54 1014.6
20260507223631 28 224 3.2 9.7 0.00 0.00 0.00 53 1014.6
20260507223531 28 275 3.2 9.7 0.00 0.00 0.00 52 1014.6
20260507223431 29 236 3.2 9.7 0.00 0.00 0.00 51 1014.7
20260507223331 29 226 1.6 9.7 0.00 0.00 0.00 51 1014.7
20260507223231 29 218 1.6 8.0 0.00 0.00 0.00 51 1014.7
20260507223131 29 281 1.6 8.0 0.00 0.00 0.00 51 1014.8
20260507223031 30 224 0.0 8.0 0.00 0.00 0.00 50 1014.8
20260507222930 30 237 0.0 4.8 0.00 0.00 0.00 51 1014.7
20260507222831 30 235 0.0 4.8 0.00 0.00 0.00 52 1014.8
20260507222741 30 235 0.0 3.2 0.00 0.00 0.00 52 1014.8
20260507222727 30 245 0.0 3.2 0.00 0.00 0.00 52 1014.8
20260507222627 30 245 0.0 3.2 0.00 0.00 0.00 51 1014.8
20260507222527 30 245 1.6 6.4 0.00 0.00 0.00 51 1014.8
20260507222427 30 246 1.6 6.4 0.00 0.00 0.00 51 1014.9
20260507222327 30 243 1.6 9.7 0.00 0.00 0.00 51 1014.9
20260507222227 30 271 1.6 9.7 0.00 0.00 0.00 52 1014.9
20260507222126 30 262 1.6 9.7 0.00 0.00 0.00 53 1015.0
20260507222028 29 139 1.6 9.7 0.00 0.00 0.00 54 1015.0
20260507222000 29 226 1.6 9.7 0.00 0.00 0.00 53 1015.0
20260507221926 29 226 1.6 9.7 0.00 0.00 0.00 53 1015.0
20260507221851 29 226 1.6 9.7 0.00 0.00 0.00 53 1015.0
20260507221728 29 226 1.6 9.7 0.00 0.00 0.00 53 1015.0
20260507221627 29 277 1.6 9.7 0.00 0.00 0.00 53 1015.0
20260507221527 29 276 1.6 9.7 0.00 0.00 0.00 52 1015.0
20260507221427 29 218 1.6 9.7 0.00 0.00 0.00 51 1015.1
20260507221327 29 125 1.6 8.0 0.00 0.00 0.00 51 1015.1
20260507221240 29 205 1.6 8.0 0.00 0.00 0.00 52 1015.1
20260507221233 28 204 1.6 6.4 0.00 0.00 0.00 53 1015.2
20260507221227 29 177 1.6 6.4 0.00 0.00 0.00 52 1015.1
20260507221126 28 194 1.6 6.4 0.00 0.00 0.00 54 1015.2
20260507221114 28 93 1.6 6.4 0.00 0.00 0.00 54 1015.2
20260507220927 28 63 1.6 6.4 0.00 0.00 0.00 54 1015.2
20260507220851 28 63 1.6 6.4 0.00 0.00 0.00 54 1015.2
20260507220723 28 174 1.6 6.4 0.00 0.00 0.00 53 1015.2
20260507220623 28 304 1.6 6.4 0.00 0.00 0.00 54 1015.2
20260507220523 28 325 1.6 6.4 0.00 0.00 0.00 53 1015.3
20260507220423 28 312 1.6 6.4 0.00 0.00 0.00 54 1015.3
20260507220323 28 231 1.6 6.4 0.00 0.00 0.00 54 1015.3
20260507220225 28 231 1.6 6.4 0.00 0.00 0.00 54 1015.3
20260507220123 28 218 1.6 8.0 0.00 0.00 0.00 53 1015.3
20260507220023 28 221 1.6 8.0 0.00 0.00 0.00 54 1015.4
20260507215924 28 219 1.6 8.0 0.00 0.00 0.00 54 1015.4
20260507215823 28 219 1.6 8.0 0.00 0.00 0.00 54 1015.4
20260507215723 28 219 1.6 8.0 0.00 0.00 0.00 55 1015.4
20260507215623 28 219 1.6 8.0 0.00 0.00 0.00 54 1015.4
20260507215523 28 219 1.6 8.0 0.00 0.00 0.00 53 1015.5
20260507215424 28 219 1.6 8.0 0.00 0.00 0.00 53 1015.4
20260507215322 28 160 1.6 8.0 0.00 0.00 0.00 52 1015.4
20260507215237 28 332 1.6 8.0 0.00 0.00 0.00 52 1015.5
20260507215223 28 321 1.6 8.0 0.00 0.00 0.00 52 1015.5
20260507215122 28 307 1.6 8.0 0.00 0.00 0.00 51 1015.5
20260507215024 28 319 1.6 8.0 0.00 0.00 0.00 52 1015.5
20260507214919 28 117 1.6 8.0 0.00 0.00 0.00 52 1015.4
20260507214820 28 141 0.0 6.4 0.00 0.00 0.00 54 1015.5
20260507214736 28 239 1.6 4.8 0.00 0.00 0.00 54 1015.5
20260507214719 28 238 1.6 4.8 0.00 0.00 0.00 54 1015.5
20260507214619 28 239 1.6 4.8 0.00 0.00 0.00 53 1015.5
20260507214519 28 238 1.6 4.8 0.00 0.00 0.00 53 1015.6
20260507214419 28 218 1.6 6.4 0.00 0.00 0.00 53 1015.6
20260507214320 28 226 1.6 6.4 0.00 0.00 0.00 54 1015.6
20260507214237 28 214 1.6 6.4 0.00 0.00 0.00 55 1015.6
20260507214220 28 153 1.6 6.4 0.00 0.00 0.00 55 1015.6
20260507214119 27 160 1.6 9.7 0.00 0.00 0.00 55 1015.6
20260507214019 27 49 1.6 9.7 0.00 0.00 0.00 55 1015.6
20260507213920 27 49 1.6 9.7 0.00 0.00 0.00 56 1015.6
20260507213819 27 53 3.2 9.7 0.00 0.00 0.00 55 1015.6
20260507213736 27 58 3.2 9.7 0.00 0.00 0.00 55 1015.6
20260507213718 27 53 3.2 9.7 0.00 0.00 0.00 55 1015.6
20260507213619 27 345 3.2 9.7 0.00 0.00 0.00 54 1015.7
20260507213519 27 317 1.6 9.7 0.00 0.00 0.00 55 1015.7
20260507213419 27 332 1.6 9.7 0.00 0.00 0.00 55 1015.7
20260507213319 27 43 1.6 9.7 0.00 0.00 0.00 54 1015.7
20260507213237 27 346 1.6 9.7 0.00 0.00 0.00 54 1015.8
20260507213219 27 318 1.6 9.7 0.00 0.00 0.00 55 1015.8
20260507213120 27 335 1.6 6.4 0.00 0.00 0.00 55 1015.8
20260507213014 27 318 1.6 6.4 0.00 0.00 0.00 53 1015.8
20260507212954 27 314 1.6 6.4 0.00 0.00 0.00 54 1015.8
20260507212916 27 318 1.6 6.4 0.00 0.00 0.00 53 1015.8
20260507212849 27 318 1.6 6.4 0.00 0.00 0.00 54 1015.8
20260507212715 27 314 1.6 6.4 0.00 0.00 0.00 54 1015.8
20260507212615 27 330 1.6 6.4 0.00 0.00 0.00 53 1015.8
20260507212515 27 330 1.6 6.4 0.00 0.00 0.00 55 1015.9
20260507212414 27 325 1.6 6.4 0.00 0.00 0.00 55 1015.8
20260507212315 27 341 1.6 6.4 0.00 0.00 0.00 55 1015.9
20260507212250 27 342 1.6 6.4 0.00 0.00 0.00 55 1015.9
20260507212215 27 342 1.6 6.4 0.00 0.00 0.00 55 1015.9
20260507212115 27 342 1.6 6.4 0.00 0.00 0.00 53 1015.9
20260507212015 27 104 1.6 6.4 0.00 0.00 0.00 53 1015.9
20260507211915 28 225 1.6 6.4 0.00 0.00 0.00 53 1016.0
20260507211815 28 225 1.6 6.4 0.00 0.00 0.00 53 1016.0
20260507211714 28 217 1.6 6.4 0.00 0.00 0.00 55 1016.0
20260507211615 28 192 1.6 6.4 0.00 0.00 0.00 53 1016.0
20260507211515 28 49 1.6 6.4 0.00 0.00 0.00 53 1016.0
20260507211414 28 316 1.6 6.4 0.00 0.00 0.00 54 1016.1
20260507211315 28 288 1.6 8.0 0.00 0.00 0.00 54 1016.1
20260507211215 28 288 1.6 8.0 0.00 0.00 0.00 54 1016.1
20260507211111 28 253 1.6 8.0 0.00 0.00 0.00 55 1016.1
20260507211011 28 253 1.6 8.0 0.00 0.00 0.00 53 1016.1
20260507210917 28 225 1.6 8.0 0.00 0.00 0.00 54 1016.1
20260507210811 28 115 1.6 8.0 0.00 0.00 0.00 54 1016.1
20260507210746 28 96 1.6 8.0 0.00 0.00 0.00 54 1016.1
20260507210711 28 96 1.6 8.0 0.00 0.00 0.00 54 1016.1
20260507210611 28 236 1.6 8.0 0.00 0.00 0.00 53 1016.1
20260507210515 27 150 1.6 8.0 0.00 0.00 0.00 56 1016.2
20260507210411 27 145 1.6 8.0 0.00 0.00 0.00 55 1016.2
20260507210311 27 223 1.6 6.4 0.00 0.00 0.00 54 1016.2
20260507210233 27 124 1.6 6.4 0.00 0.00 0.00 54 1016.2
20260507210211 27 133 1.6 6.4 0.00 0.00 0.00 55 1016.2
20260507210111 27 134 1.6 6.4 0.00 0.00 0.00 54 1016.2
20260507210011 27 228 1.6 6.4 0.00 0.00 0.00 54 1016.2
20260507205911 27 218 0.0 6.4 0.00 0.00 0.00 56 1016.3
20260507205810 27 305 1.6 6.4 0.00 0.00 0.00 56 1016.2
20260507205733 27 305 1.6 6.4 0.00 0.00 0.00 56 1016.2
20260507205712 27 305 1.6 6.4 0.00 0.00 0.00 55 1016.2
20260507205611 27 305 1.6 6.4 0.00 0.00 0.00 56 1016.3
20260507205511 27 240 1.6 4.8 0.00 0.00 0.00 56 1016.3
20260507205411 27 240 1.6 4.8 0.00 0.00 0.00 57 1016.3
20260507205311 27 240 1.6 4.8 0.00 0.00 0.00 57 1016.4
20260507205232 27 240 1.6 4.8 0.00 0.00 0.00 56 1016.4
20260507205207 27 240 1.6 4.8 0.00 0.00 0.00 57 1016.4
20260507205107 27 99 1.6 3.2 0.00 0.00 0.00 56 1016.4
20260507205007 26 271 1.6 4.8 0.00 0.00 0.00 56 1016.3
20260507204907 26 150 1.6 4.8 0.00 0.00 0.00 57 1016.4
20260507204807 26 134 1.6 9.7 0.00 0.00 0.00 57 1016.4
20260507204733 26 127 1.6 9.7 0.00 0.00 0.00 57 1016.4
20260507204708 26 302 1.6 9.7 0.00 0.00 0.00 57 1016.4
20260507204607 26 304 1.6 9.7 0.00 0.00 0.00 58 1016.4
20260507204508 26 304 3.2 9.7 0.00 0.00 0.00 59 1016.4
20260507204407 26 99 3.2 9.7 0.00 0.00 0.00 58 1016.4
20260507204307 26 41 1.6 9.7 0.00 0.00 0.00 57 1016.4
20260507204232 26 43 1.6 9.7 0.00 0.00 0.00 57 1016.4
20260507204207 26 322 1.6 9.7 0.00 0.00 0.00 57 1016.4
20260507204108 26 323 1.6 9.7 0.00 0.00 0.00 57 1016.4
20260507204007 26 342 1.6 9.7 0.00 0.00 0.00 57 1016.4
20260507203908 26 358 1.6 9.7 0.00 0.00 0.00 56 1016.4
20260507203807 26 338 1.6 9.7 0.00 0.00 0.00 56 1016.4
20260507203734 27 355 1.6 9.7 0.00 0.00 0.00 57 1016.4
20260507203708 27 5 1.6 9.7 0.00 0.00 0.00 57 1016.4
20260507203607 26 291 1.6 9.7 0.00 0.00 0.00 58 1016.5
20260507203511 26 153 3.2 9.7 0.00 0.00 0.00 58 1016.4
20260507203407 26 154 3.2 9.7 0.00 0.00 0.00 59 1016.4
20260507203303 26 158 3.2 9.7 0.00 0.00 0.00 59 1016.5
20260507203230 26 159 3.2 9.7 0.00 0.00 0.00 59 1016.5
20260507203214 26 231 3.2 9.7 0.00 0.00 0.00 58 1016.5
20260507203203 26 330 3.2 9.7 0.00 0.00 0.00 59 1016.5
20260507203111 26 330 3.2 9.7 0.00 0.00 0.00 60 1016.5
20260507203103 26 330 3.2 9.7 0.00 0.00 0.00 60 1016.5
20260507202903 26 16 3.2 9.7 0.00 0.00 0.00 58 1016.5
20260507202841 26 126 3.2 9.7 0.00 0.00 0.00 58 1016.5
20260507202703 26 221 3.2 9.7 0.00 0.00 0.00 57 1016.5
20260507202604 26 235 3.2 9.7 0.00 0.00 0.00 58 1016.6
20260507202503 26 231 3.2 9.7 0.00 0.00 0.00 58 1016.6
20260507202402 26 138 3.2 8.0 0.00 0.00 0.00 59 1016.6
20260507202306 26 153 3.2 8.0 0.00 0.00 0.00 59 1016.6
20260507202229 26 303 3.2 8.0 0.00 0.00 0.00 59 1016.7
20260507202203 26 27 3.2 8.0 0.00 0.00 0.00 58 1016.7
20260507202104 26 11 3.2 8.0 0.00 0.00 0.00 58 1016.6
20260507202004 26 332 3.2 8.0 0.00 0.00 0.00 58 1016.6
20260507201903 26 267 3.2 8.0 0.00 0.00 0.00 59 1016.7
20260507201803 26 245 1.6 8.0 0.00 0.00 0.00 57 1016.7
20260507201729 26 231 1.6 8.0 0.00 0.00 0.00 57 1016.7
20260507201703 26 208 1.6 8.0 0.00 0.00 0.00 57 1016.7
20260507201603 26 211 1.6 4.8 0.00 0.00 0.00 57 1016.7
20260507201504 26 216 1.6 4.8 0.00 0.00 0.00 56 1016.7
20260507201359 26 225 1.6 4.8 0.00 0.00 0.00 57 1016.7
20260507201259 26 158 1.6 4.8 0.00 0.00 0.00 58 1016.7
20260507201230 26 120 1.6 4.8 0.00 0.00 0.00 59 1016.7
20260507201222 26 319 3.2 11.3 0.00 0.00 0.00 60 1016.7
20260507201159 26 207 1.6 6.4 0.00 0.00 0.00 60 1016.7
20260507201111 26 229 1.6 8.0 0.00 0.00 0.00 60 1016.7
20260507201102 26 236 3.2 11.3 0.00 0.00 0.00 60 1016.7
20260507200859 26 200 3.2 11.3 0.00 0.00 0.00 60 1016.8
20260507200840 26 319 3.2 11.3 0.00 0.00 0.00 60 1016.7
20260507200659 26 321 3.2 11.3 0.00 0.00 0.00 59 1016.7
20260507200559 26 340 3.2 11.3 0.00 0.00 0.00 59 1016.7
20260507200458 26 316 3.2 11.3 0.00 0.00 0.00 59 1016.8
20260507200359 26 235 4.8 11.3 0.00 0.00 0.00 60 1016.8
20260507200259 26 238 4.8 11.3 0.00 0.00 0.00 59 1016.8
20260507200242 26 316 4.8 11.3 0.00 0.00 0.00 59 1016.8
20260507200159 26 212 4.8 11.3 0.00 0.00 0.00 59 1016.8
20260507200100 26 217 4.8 11.3 0.00 0.00 0.00 59 1016.8
20260507195958 25 127 4.8 11.3 0.00 0.00 0.00 60 1016.8
20260507195859 25 176 4.8 11.3 0.00 0.00 0.00 59 1016.8
20260507195759 25 176 4.8 11.3 0.00 0.00 0.00 59 1016.8
20260507195733 25 150 4.8 11.3 0.00 0.00 0.00 59 1016.8
20260507195718 25 228 4.8 11.3 0.00 0.00 0.00 62 1017.0
20260507195659 25 240 4.8 11.3 0.00 0.00 0.00 59 1016.8
20260507195608 25 131 6.4 11.3 0.00 0.00 0.00 60 1016.8
20260507195454 25 146 4.8 11.3 0.00 0.00 0.00 61 1016.9
20260507195355 25 156 4.8 11.3 0.00 0.00 0.00 61 1016.9
20260507195344 25 191 4.8 11.3 0.00 0.00 0.00 62 1016.9
20260507195200 25 229 4.8 11.3 0.00 0.00 0.00 61 1017.0
20260507195055 25 229 4.8 11.3 0.00 0.00 0.00 61 1017.0
20260507194954 25 224 3.2 11.3 0.00 0.00 0.00 60 1017.0
20260507194945 25 243 3.2 9.7 0.00 0.00 0.00 59 1017.1
20260507194855 25 225 3.2 11.3 0.00 0.00 0.00 59 1017.0
20260507194836 25 228 3.2 11.3 0.00 0.00 0.00 59 1017.1
20260507194655 25 229 3.2 8.0 0.00 0.00 0.00 59 1017.1
20260507194555 25 228 1.6 8.0 0.00 0.00 0.00 60 1017.1
20260507194454 25 236 1.6 8.0 0.00 0.00 0.00 61 1017.0
20260507194355 25 236 3.2 8.0 0.00 0.00 0.00 59 1017.1
20260507194255 25 214 3.2 8.0 0.00 0.00 0.00 60 1017.1
20260507194225 25 236 3.2 8.0 0.00 0.00 0.00 60 1017.1
20260507194155 25 238 3.2 9.7 0.00 0.00 0.00 60 1017.1
20260507194054 25 228 3.2 9.7 0.00 0.00 0.00 61 1017.1
20260507193955 25 216 3.2 9.7 0.00 0.00 0.00 62 1017.1
20260507193855 25 215 3.2 9.7 0.00 0.00 0.00 61 1017.1
20260507193756 25 208 3.2 9.7 0.00 0.00 0.00 61 1017.1
20260507193724 25 208 3.2 9.7 0.00 0.00 0.00 61 1017.1
20260507193655 25 203 3.2 9.7 0.00 0.00 0.00 61 1017.1
20260507193551 25 197 3.2 9.7 0.00 0.00 0.00 61 1017.2
20260507193451 25 225 3.2 9.7 0.00 0.00 0.00 61 1017.2
20260507193351 25 249 3.2 9.7 0.00 0.00 0.00 60 1017.2
20260507193251 25 226 3.2 9.7 0.00 0.00 0.00 60 1017.2
20260507193225 25 240 3.2 9.7 0.00 0.00 0.00 61 1017.2
20260507193151 25 250 3.2 11.3 0.00 0.00 0.00 62 1017.2
20260507193054 25 204 3.2 11.3 0.00 0.00 0.00 63 1017.3
20260507192950 25 204 3.2 11.3 0.00 0.00 0.00 63 1017.3
20260507192851 24 204 3.2 11.3 0.00 0.00 0.00 63 1017.2
20260507192751 24 245 3.2 11.3 0.00 0.00 0.00 63 1017.2
20260507192730 24 233 3.2 11.3 0.00 0.00 0.00 63 1017.3
20260507192651 24 238 3.2 11.3 0.00 0.00 0.00 63 1017.3
20260507192551 24 229 3.2 11.3 0.00 0.00 0.00 61 1017.3
20260507192451 24 233 1.6 11.3 0.00 0.00 0.00 62 1017.3
20260507192350 24 248 1.6 11.3 0.00 0.00 0.00 61 1017.4
20260507192251 25 257 1.6 11.3 0.00 0.00 0.00 62 1017.4
20260507192225 25 236 1.6 11.3 0.00 0.00 0.00 62 1017.3
20260507192151 25 321 1.6 4.8 0.00 0.00 0.00 62 1017.3
20260507192051 25 44 0.0 4.8 0.00 0.00 0.00 62 1017.3
20260507191956 24 286 1.6 6.4 0.00 0.00 0.00 62 1017.4
20260507191951 24 309 1.6 4.8 0.00 0.00 0.00 63 1017.4
20260507191851 24 53 1.6 4.8 0.00 0.00 0.00 62 1017.4
20260507191834 24 61 1.6 6.4 0.00 0.00 0.00 62 1017.4
20260507191650 24 44 1.6 6.4 0.00 0.00 0.00 61 1017.4
20260507191546 24 30 1.6 6.4 0.00 0.00 0.00 62 1017.5
20260507191446 24 314 1.6 6.4 0.00 0.00 0.00 63 1017.5
20260507191347 24 207 1.6 11.3 0.00 0.00 0.00 63 1017.5
20260507191247 24 197 3.2 11.3 0.00 0.00 0.00 62 1017.5
20260507191226 24 198 3.2 11.3 0.00 0.00 0.00 62 1017.6
20260507191147 24 198 3.2 11.3 0.00 0.00 0.00 63 1017.6
20260507191047 23 235 3.2 11.3 0.00 0.00 0.00 65 1017.5
20260507190955 23 238 4.8 11.3 0.00 0.00 0.00 65 1017.5
20260507190947 23 235 3.2 11.3 0.00 0.00 0.00 65 1017.5
20260507190847 23 218 3.2 11.3 0.00 0.00 0.00 66 1017.6
20260507190836 23 238 3.2 11.3 0.00 0.00 0.00 65 1017.6
20260507190650 23 241 4.8 11.3 0.00 0.00 0.00 67 1017.5
20260507190547 23 150 4.8 11.3 0.00 0.00 0.00 66 1017.5
20260507190447 22 211 4.8 11.3 0.00 0.00 0.00 66 1017.6
20260507190347 22 195 4.8 11.3 0.00 0.00 0.00 66 1017.6
20260507190247 22 208 4.8 11.3 0.00 0.00 0.00 65 1017.6
20260507190223 22 232 3.2 11.3 0.00 0.00 0.00 65 1017.6
20260507190147 22 235 3.2 11.3 0.00 0.00 0.00 66 1017.6
20260507190047 22 226 3.2 11.3 0.00 0.00 0.00 65 1017.6
20260507185947 22 218 3.2 11.3 0.00 0.00 0.00 65 1017.6
20260507185847 23 218 3.2 11.3 0.00 0.00 0.00 64 1017.7
20260507185746 23 248 3.2 11.3 0.00 0.00 0.00 65 1017.6
20260507185721 23 240 3.2 11.3 0.00 0.00 0.00 65 1017.6
20260507185643 23 224 3.2 9.7 0.00 0.00 0.00 67 1017.7
20260507185544 22 232 3.2 9.7 0.00 0.00 0.00 66 1017.7
20260507185443 22 259 3.2 9.7 0.00 0.00 0.00 65 1017.7
20260507185343 22 225 3.2 9.7 0.00 0.00 0.00 64 1017.7
20260507185243 22 233 3.2 9.7 0.00 0.00 0.00 65 1017.7
20260507185221 22 260 3.2 9.7 0.00 0.00 0.00 65 1017.7
20260507185143 22 233 3.2 9.7 0.00 0.00 0.00 66 1017.7
20260507185043 22 228 3.2 9.7 0.00 0.00 0.00 66 1017.7
20260507184947 22 278 3.2 11.3 0.00 0.00 0.00 66 1017.8
20260507184942 22 231 3.2 9.7 0.00 0.00 0.00 67 1017.8
20260507184843 22 242 3.2 11.3 0.00 0.00 0.00 67 1017.8
20260507184833 22 278 3.2 11.3 0.00 0.00 0.00 67 1017.8
20260507184643 22 226 3.2 11.3 0.00 0.00 0.00 66 1017.7
20260507184542 22 250 3.2 11.3 0.00 0.00 0.00 65 1017.8
20260507184443 22 211 3.2 11.3 0.00 0.00 0.00 65 1017.8
20260507184343 22 208 3.2 11.3 0.00 0.00 0.00 65 1017.8
20260507184243 22 233 3.2 11.3 0.00 0.00 0.00 66 1017.8
20260507184221 22 224 3.2 11.3 0.00 0.00 0.00 67 1017.8
20260507184145 22 228 3.2 11.3 0.00 0.00 0.00 67 1017.7
20260507184043 22 226 3.2 11.3 0.00 0.00 0.00 68 1017.8
20260507183944 22 226 3.2 11.3 0.00 0.00 0.00 67 1017.8
20260507183839 22 224 3.2 9.7 0.00 0.00 0.00 67 1017.8
20260507183721 22 207 3.2 9.7 0.00 0.00 0.00 67 1017.8
20260507183639 22 200 3.2 9.7 0.00 0.00 0.00 67 1017.8
20260507183539 22 231 3.2 9.7 0.00 0.00 0.00 66 1017.8
20260507183439 22 235 3.2 9.7 0.00 0.00 0.00 67 1017.9
20260507183339 22 221 4.8 9.7 0.00 0.00 0.00 67 1017.9
20260507183239 22 233 4.8 12.9 0.00 0.00 0.00 67 1017.9
20260507183222 22 252 4.8 12.9 0.00 0.00 0.00 67 1017.9
20260507183144 22 217 4.8 12.9 0.00 0.00 0.00 67 1017.9
20260507183039 22 216 4.8 12.9 0.00 0.00 0.00 66 1017.9
20260507182940 22 233 3.2 12.9 0.00 0.00 0.00 67 1017.9
20260507182839 22 239 3.2 12.9 0.00 0.00 0.00 68 1017.9
20260507182721 22 155 3.2 12.9 0.00 0.00 0.00 69 1017.9
20260507182639 22 155 3.2 12.9 0.00 0.00 0.00 67 1017.9
20260507182541 22 146 3.2 12.9 0.00 0.00 0.00 68 1017.9
20260507182445 22 150 1.6 9.7 0.00 0.00 0.00 65 1017.9
20260507182439 22 243 3.2 12.9 0.00 0.00 0.00 67 1017.9
20260507182342 22 205 3.2 12.9 0.00 0.00 0.00 66 1017.9
20260507182333 22 201 1.6 9.7 0.00 0.00 0.00 65 1017.9
20260507182139 22 153 1.6 9.7 0.00 0.00 0.00 66 1017.9
20260507182039 22 210 1.6 9.7 0.00 0.00 0.00 67 1018.0
20260507181944 22 314 3.2 9.7 0.00 0.00 0.00 69 1018.0
20260507181935 22 314 3.2 9.7 0.00 0.00 0.00 67 1018.0
20260507181835 22 314 3.2 9.7 0.00 0.00 0.00 68 1018.0
20260507181827 22 314 3.2 9.7 0.00 0.00 0.00 69 1018.0
20260507181635 22 262 3.2 9.7 0.00 0.00 0.00 68 1018.0
20260507181535 22 240 3.2 9.7 0.00 0.00 0.00 68 1017.9
20260507181435 22 216 3.2 9.7 0.00 0.00 0.00 67 1017.9
20260507181335 22 186 3.2 9.7 0.00 0.00 0.00 68 1017.9
20260507181235 21 234 3.2 11.3 0.00 0.00 0.00 69 1018.0
20260507181217 21 231 3.2 11.3 0.00 0.00 0.00 69 1018.0
20260507181135 21 74 4.8 11.3 0.00 0.00 0.00 68 1018.0
20260507181035 21 139 3.2 11.3 0.00 0.00 0.00 68 1018.0
20260507180934 21 242 3.2 11.3 0.00 0.00 0.00 68 1018.0
20260507180835 21 252 3.2 11.3 0.00 0.00 0.00 69 1018.0
20260507180740 21 212 3.2 11.3 0.00 0.00 0.00 69 1017.9
20260507180730 21 208 3.2 11.3 0.00 0.00 0.00 69 1017.9
20260507180638 21 143 3.2 11.3 0.00 0.00 0.00 69 1018.0
20260507180535 21 225 3.2 11.3 0.00 0.00 0.00 69 1018.0
20260507180439 21 212 1.6 8.0 0.00 0.00 0.00 67 1018.0
20260507180434 21 187 3.2 11.3 0.00 0.00 0.00 67 1018.0
20260507180336 21 233 1.6 11.3 0.00 0.00 0.00 67 1018.0
20260507180327 21 236 1.6 8.0 0.00 0.00 0.00 67 1018.0
20260507180135 21 163 1.6 8.0 0.00 0.00 0.00 67 1018.0
20260507180031 21 219 1.6 8.0 0.00 0.00 0.00 69 1018.0
20260507175931 21 224 1.6 8.0 0.00 0.00 0.00 68 1018.0
20260507175831 21 224 1.6 8.0 0.00 0.00 0.00 68 1018.0
20260507175731 21 226 1.6 8.0 0.00 0.00 0.00 68 1018.0
20260507175720 21 229 1.6 8.0 0.00 0.00 0.00 68 1018.0
20260507175631 21 233 1.6 8.0 0.00 0.00 0.00 67 1018.1
20260507175531 21 232 1.6 6.4 0.00 0.00 0.00 68 1018.1
20260507175431 21 238 1.6 8.0 0.00 0.00 0.00 69 1018.1
20260507175331 21 143 1.6 8.0 0.00 0.00 0.00 69 1018.1
20260507175234 21 138 1.6 8.0 0.00 0.00 0.00 68 1018.1
20260507175216 21 139 1.6 8.0 0.00 0.00 0.00 68 1018.1
20260507175131 21 232 1.6 8.0 0.00 0.00 0.00 68 1018.1
20260507175031 21 233 1.6 8.0 0.00 0.00 0.00 68 1018.1
20260507174931 21 233 1.6 8.0 0.00 0.00 0.00 68 1018.1
20260507174830 21 218 1.6 8.0 0.00 0.00 0.00 68 1018.1
20260507174732 21 217 1.6 8.0 0.00 0.00 0.00 69 1018.0
20260507174719 21 298 1.6 8.0 0.00 0.00 0.00 69 1018.0
20260507174631 21 219 1.6 8.0 0.00 0.00 0.00 69 1018.1
20260507174532 21 233 0.0 8.0 0.00 0.00 0.00 69 1018.1
20260507174431 21 223 0.0 3.2 0.00 0.00 0.00 70 1018.1
20260507174331 21 222 0.0 3.2 0.00 0.00 0.00 70 1018.1
20260507174217 21 222 0.0 3.2 0.00 0.00 0.00 70 1018.1
20260507174126 21 278 0.0 3.2 0.00 0.00 0.00 70 1018.1
20260507174027 21 278 0.0 3.2 0.00 0.00 0.00 70 1018.1
20260507173927 21 278 0.0 3.2 0.00 0.00 0.00 70 1018.1
20260507173828 21 139 0.0 3.2 0.00 0.00 0.00 70 1018.1
20260507173716 21 138 0.0 3.2 0.00 0.00 0.00 71 1018.1
20260507173626 21 283 0.0 3.2 0.00 0.00 0.00 71 1018.1
20260507173527 21 283 1.6 6.4 0.00 0.00 0.00 72 1018.1
20260507173427 21 283 1.6 9.7 0.00 0.00 0.00 72 1018.1
20260507173327 20 232 1.6 9.7 0.00 0.00 0.00 72 1018.1
20260507173227 20 226 1.6 9.7 0.00 0.00 0.00 72 1018.1
20260507173213 20 226 1.6 9.7 0.00 0.00 0.00 73 1018.1
20260507173127 20 226 1.6 9.7 0.00 0.00 0.00 73 1018.1
20260507173027 20 226 1.6 9.7 0.00 0.00 0.00 73 1018.1
20260507172927 20 226 1.6 9.7 0.00 0.00 0.00 73 1018.1
20260507172827 20 226 3.2 9.7 0.00 0.00 0.00 73 1018.1
20260507172714 20 214 3.2 9.7 0.00 0.00 0.00 73 1018.2
20260507172627 20 260 3.2 9.7 0.00 0.00 0.00 73 1018.2
20260507172527 20 235 1.6 11.3 0.00 0.00 0.00 73 1018.1
20260507172428 20 231 1.6 11.3 0.00 0.00 0.00 74 1018.1
20260507172328 20 214 1.6 11.3 0.00 0.00 0.00 74 1018.1
20260507172213 20 238 1.6 11.3 0.00 0.00 0.00 74 1018.2
20260507172158 19 285 4.8 11.3 0.00 0.00 0.00 75 1018.2
20260507172123 20 238 3.2 11.3 0.00 0.00 0.00 75 1018.1
20260507172042 19 200 3.2 11.3 0.00 0.00 0.00 75 1018.2
20260507171924 19 250 3.2 11.3 0.00 0.00 0.00 74 1018.1
20260507171832 19 250 3.2 11.3 0.00 0.00 0.00 75 1018.2
20260507171824 19 285 4.8 11.3 0.00 0.00 0.00 75 1018.2
20260507171623 19 285 3.2 11.3 0.00 0.00 0.00 74 1018.1
20260507171523 19 238 3.2 11.3 0.00 0.00 0.00 75 1018.2
20260507171423 19 232 3.2 11.3 0.00 0.00 0.00 76 1018.2
20260507171323 19 235 3.2 11.3 0.00 0.00 0.00 76 1018.2
20260507171215 18 233 3.2 11.3 0.00 0.00 0.00 76 1018.2
20260507171123 18 233 3.2 11.3 0.00 0.00 0.00 75 1018.3
20260507171023 18 221 1.6 11.3 0.00 0.00 0.00 75 1018.2
20260507170923 19 215 1.6 11.3 0.00 0.00 0.00 74 1018.3
20260507170823 19 214 1.6 11.3 0.00 0.00 0.00 75 1018.3
20260507170724 19 217 1.6 6.4 0.00 0.00 0.00 76 1018.3
20260507170714 19 219 1.6 6.4 0.00 0.00 0.00 76 1018.3
20260507170623 18 251 1.6 8.0 0.00 0.00 0.00 77 1018.2
20260507170522 18 250 3.2 9.7 0.00 0.00 0.00 77 1018.3
20260507170423 18 250 3.2 9.7 0.00 0.00 0.00 77 1018.3
20260507170319 18 314 3.2 9.7 0.00 0.00 0.00 77 1018.3
20260507170223 18 314 3.2 9.7 0.00 0.00 0.00 78 1018.3
20260507170213 18 315 3.2 9.7 0.00 0.00 0.00 78 1018.3
20260507170119 18 270 3.2 9.7 0.00 0.00 0.00 78 1018.3
20260507170019 18 270 3.2 9.7 0.00 0.00 0.00 79 1018.3
20260507165919 18 270 4.8 9.7 0.00 0.00 0.00 78 1018.3
20260507165819 18 235 4.8 9.7 0.00 0.00 0.00 78 1018.3
20260507165723 18 146 4.8 9.7 0.00 0.00 0.00 77 1018.2
20260507165713 18 161 4.8 9.7 0.00 0.00 0.00 77 1018.2
20260507165620 18 225 4.8 9.7 0.00 0.00 0.00 78 1018.3
20260507165519 18 245 3.2 9.7 0.00 0.00 0.00 78 1018.3
20260507165419 18 221 3.2 9.7 0.00 0.00 0.00 79 1018.3
20260507165319 18 236 3.2 9.7 0.00 0.00 0.00 79 1018.2
20260507165213 18 236 3.2 9.7 0.00 0.00 0.00 79 1018.3
20260507165119 18 256 3.2 9.7 0.00 0.00 0.00 78 1018.3
20260507165019 18 269 3.2 9.7 0.00 0.00 0.00 77 1018.3
20260507164918 18 212 1.6 9.7 0.00 0.00 0.00 77 1018.3
20260507164819 18 218 1.6 9.7 0.00 0.00 0.00 77 1018.3
20260507164719 18 256 1.6 9.7 0.00 0.00 0.00 78 1018.3
20260507164709 18 250 1.6 9.7 0.00 0.00 0.00 78 1018.3
20260507164619 18 238 1.6 8.0 0.00 0.00 0.00 78 1018.3
20260507164519 18 238 1.6 8.0 0.00 0.00 0.00 77 1018.3
20260507164415 18 238 1.6 8.0 0.00 0.00 0.00 79 1018.3
20260507164315 18 304 1.6 6.4 0.00 0.00 0.00 79 1018.3
20260507164218 18 305 1.6 6.4 0.00 0.00 0.00 79 1018.3
20260507164208 18 242 1.6 6.4 0.00 0.00 0.00 79 1018.3
20260507164115 18 207 1.6 6.4 0.00 0.00 0.00 80 1018.2
20260507164015 18 207 1.6 6.4 0.00 0.00 0.00 79 1018.3
20260507163915 17 207 1.6 6.4 0.00 0.00 0.00 79 1018.2
20260507163815 17 207 1.6 6.4 0.00 0.00 0.00 78 1018.2
20260507163709 17 224 1.6 6.4 0.00 0.00 0.00 79 1018.2
20260507163615 17 212 1.6 6.4 0.00 0.00 0.00 79 1018.2
20260507163515 17 219 0.0 6.4 0.00 0.00 0.00 80 1018.2
20260507163415 17 233 0.0 6.4 0.00 0.00 0.00 80 1018.3
20260507163316 17 233 1.6 6.4 0.00 0.00 0.00 80 1018.3
20260507163221 17 231 0.0 6.4 0.00 0.00 0.00 81 1018.3
20260507163211 17 232 0.0 6.4 0.00 0.00 0.00 81 1018.3
20260507163015 17 232 1.6 6.4 0.00 0.00 0.00 81 1018.3
20260507162915 17 232 1.6 6.4 0.00 0.00 0.00 81 1018.3
20260507162815 17 231 1.6 6.4 0.00 0.00 0.00 82 1018.3
20260507162718 17 230 1.6 6.4 0.00 0.00 0.00 82 1018.3
20260507162708 17 231 1.6 6.4 0.00 0.00 0.00 82 1018.3
20260507162615 17 253 1.6 4.8 0.00 0.00 0.00 83 1018.3
20260507162510 17 49 1.6 6.4 0.00 0.00 0.00 83 1018.3
20260507162411 17 179 3.2 6.4 0.00 0.00 0.00 82 1018.3
20260507162311 17 222 3.2 6.4 0.00 0.00 0.00 84 1018.4
20260507162212 16 222 3.2 6.4 0.00 0.00 0.00 83 1018.4
20260507162111 16 222 3.2 6.4 0.00 0.00 0.00 83 1018.4
20260507162011 16 238 3.2 6.4 0.00 0.00 0.00 82 1018.4
20260507161911 16 225 3.2 6.4 0.00 0.00 0.00 82 1018.4
20260507161811 16 224 3.2 6.4 0.00 0.00 0.00 82 1018.4
20260507161713 16 172 1.6 6.4 0.00 0.00 0.00 82 1018.4
20260507161611 16 215 1.6 6.4 0.00 0.00 0.00 82 1018.4
20260507161510 16 164 1.6 6.4 0.00 0.00 0.00 82 1018.4
20260507161411 16 200 1.6 8.0 0.00 0.00 0.00 82 1018.4
20260507161310 16 225 1.6 8.0 0.00 0.00 0.00 82 1018.4
20260507161213 16 226 1.6 8.0 0.00 0.00 0.00 82 1018.4
20260507161111 16 226 1.6 8.0 0.00 0.00 0.00 84 1018.4
20260507161011 16 228 1.6 8.0 0.00 0.00 0.00 84 1018.4
20260507160911 16 222 1.6 8.0 0.00 0.00 0.00 84 1018.4
20260507160810 16 232 1.6 8.0 0.00 0.00 0.00 84 1018.4
20260507160713 16 232 1.6 8.0 0.00 0.00 0.00 84 1018.4
20260507160607 16 232 1.6 8.0 0.00 0.00 0.00 84 1018.4
20260507160507 16 232 1.6 8.0 0.00 0.00 0.00 84 1018.4
20260507160407 16 231 0.0 6.4 0.00 0.00 0.00 85 1018.4
20260507160307 16 219 0.0 3.2 0.00 0.00 0.00 86 1018.4
20260507160210 16 228 0.0 4.8 0.00 0.00 0.00 86 1018.4
20260507160107 16 228 0.0 4.8 0.00 0.00 0.00 86 1018.4
20260507160007 16 240 1.6 4.8 0.00 0.00 0.00 86 1018.4
20260507155907 16 240 1.6 4.8 0.00 0.00 0.00 86 1018.4
20260507155807 15 231 1.6 4.8 0.00 0.00 0.00 87 1018.4
20260507155710 15 229 1.6 4.8 0.00 0.00 0.00 87 1018.5
20260507155607 15 248 1.6 4.8 0.00 0.00 0.00 88 1018.5
20260507155507 15 248 1.6 4.8 0.00 0.00 0.00 88 1018.5
20260507155407 15 243 1.6 4.8 0.00 0.00 0.00 88 1018.5
20260507155307 15 240 1.6 4.8 0.00 0.00 0.00 88 1018.5
20260507155209 15 221 1.6 6.4 0.00 0.00 0.00 88 1018.5
20260507155107 15 218 1.6 6.4 0.00 0.00 0.00 88 1018.5
20260507155007 15 210 1.6 6.4 0.00 0.00 0.00 89 1018.5
20260507154927 15 226 1.6 6.4 0.00 0.00 0.00 90 1018.5
20260507154907 15 156 1.6 6.4 0.00 0.00 0.00 89 1018.5
20260507154823 15 149 1.6 6.4 0.00 0.00 0.00 90 1018.5
20260507154703 15 228 1.6 6.4 0.00 0.00 0.00 90 1018.5
20260507154603 15 229 1.6 6.4 0.00 0.00 0.00 90 1018.5
20260507154504 14 230 3.2 6.4 0.00 0.00 0.00 90 1018.5
20260507154403 14 229 3.2 6.4 0.00 0.00 0.00 90 1018.5
20260507154303 14 231 3.2 6.4 0.00 0.00 0.00 90 1018.5
20260507154209 14 232 3.2 6.4 0.00 0.00 0.00 91 1018.5
20260507154203 14 232 3.2 6.4 0.00 0.00 0.00 91 1018.5
20260507154103 14 142 3.2 6.4 0.00 0.00 0.00 91 1018.5
20260507154003 14 221 3.2 6.4 0.00 0.00 0.00 91 1018.5
20260507153904 14 228 3.2 6.4 0.00 0.00 0.00 91 1018.5
20260507153803 14 216 3.2 6.4 0.00 0.00 0.00 91 1018.5
20260507153710 13 235 3.2 6.4 0.00 0.00 0.00 91 1018.5
20260507153703 13 235 3.2 6.4 0.00 0.00 0.00 91 1018.5
20260507153647 13 132 1.6 6.4 0.00 0.00 0.00 92 1018.5
20260507153603 13 235 3.2 6.4 0.00 0.00 0.00 92 1018.5
20260507153539 13 230 1.6 6.4 0.00 0.00 0.00 92 1018.5
20260507153403 13 222 1.6 6.4 0.00 0.00 0.00 92 1018.5
20260507153320 13 243 1.6 6.4 0.00 0.00 0.00 92 1018.5
20260507153203 13 132 1.6 6.4 0.00 0.00 0.00 92 1018.5
20260507153103 13 235 3.2 8.0 0.00 0.00 0.00 92 1018.5
20260507153004 13 233 3.2 8.0 0.00 0.00 0.00 92 1018.5
20260507152902 13 232 3.2 8.0 0.00 0.00 0.00 92 1018.5
20260507152759 13 240 3.2 11.3 0.00 0.00 0.00 93 1018.5
20260507152706 13 233 3.2 11.3 0.00 0.00 0.00 93 1018.5
20260507152659 13 232 3.2 11.3 0.00 0.00 0.00 93 1018.5
20260507152559 13 235 3.2 11.3 0.00 0.00 0.00 92 1018.6
20260507152458 13 235 4.8 11.3 0.00 0.00 0.00 92 1018.5
20260507152359 13 237 4.8 11.3 0.00 0.00 0.00 92 1018.5
20260507152259 13 226 4.8 11.3 0.00 0.00 0.00 92 1018.5
20260507152205 13 187 4.8 11.3 0.00 0.00 0.00 92 1018.5
20260507152159 13 208 4.8 11.3 0.00 0.00 0.00 92 1018.5
20260507152059 13 233 4.8 11.3 0.00 0.00 0.00 92 1018.5
20260507151959 13 238 4.8 11.3 0.00 0.00 0.00 92 1018.5
20260507151858 13 243 4.8 11.3 0.00 0.00 0.00 92 1018.5
20260507151759 13 219 4.8 11.3 0.00 0.00 0.00 93 1018.5
20260507151705 13 245 4.8 11.3 0.00 0.00 0.00 93 1018.5
20260507151659 13 243 4.8 11.3 0.00 0.00 0.00 93 1018.5
20260507151559 13 235 4.8 11.3 0.00 0.00 0.00 93 1018.5
20260507151459 13 214 4.8 11.3 0.00 0.00 0.00 92 1018.5
20260507151359 13 228 4.8 11.3 0.00 0.00 0.00 92 1018.6
20260507151258 13 240 4.8 11.3 0.00 0.00 0.00 93 1018.6
20260507151205 13 245 4.8 11.3 0.00 0.00 0.00 93 1018.5
20260507151159 13 229 4.8 11.3 0.00 0.00 0.00 93 1018.5
20260507151059 13 257 4.8 11.3 0.00 0.00 0.00 93 1018.5
20260507150959 13 238 4.8 11.3 0.00 0.00 0.00 93 1018.5
20260507150855 13 228 4.8 11.3 0.00 0.00 0.00 93 1018.5
20260507150755 13 229 3.2 9.7 0.00 0.00 0.00 93 1018.5
20260507150701 12 226 3.2 9.7 0.00 0.00 0.00 93 1018.4
20260507150655 12 228 3.2 9.7 0.00 0.00 0.00 93 1018.4
20260507150556 12 222 3.2 9.7 0.00 0.00 0.00 93 1018.5
20260507150455 12 224 3.2 9.7 0.00 0.00 0.00 93 1018.5
20260507150355 12 207 3.2 9.7 0.00 0.00 0.00 93 1018.5
20260507150255 12 259 3.2 11.3 0.00 0.00 0.00 93 1018.5
20260507150203 12 212 3.2 11.3 0.00 0.00 0.00 93 1018.5
20260507150155 12 233 3.2 12.9 0.00 0.00 0.00 93 1018.5
20260507150055 12 186 4.8 12.9 0.00 0.00 0.00 93 1018.5
20260507145955 12 198 4.8 12.9 0.00 0.00 0.00 93 1018.5
20260507145855 12 228 4.8 12.9 0.00 0.00 0.00 93 1018.5